Wetterdaten: Sonntag, 03.08.2014
Datum Zeit Temp. Aussen +5cm Feuchte Auss Luftdruck Regen Sonnenschein Regendauer UV Solar Windben
03.08.2014 00:00 19,0 C 17,2 C 96 % 1006,7 hPa 0,0 l/m 0 min 0 min 0,0 UV-I 0 W/m 0,0 km/h (0 Bft)
03.08.2014 00:02 19,0 C 17,2 C 96 % 1006,8 hPa 0,0 l/m 0 min 0 min 0,0 UV-I 0 W/m 0,0 km/h (0 Bft)
03.08.2014 00:05 19,0 C 17,2 C 96 % 1006,8 hPa 0,0 l/m 0 min 0 min 0,0 UV-I 0 W/m 10,7 km/h (2 Bft)
03.08.2014 00:06 19,0 C 17,2 C 96 % 1006,8 hPa 0,0 l/m 0 min 0 min 0,0 UV-I 0 W/m 7,1 km/h (2 Bft)
03.08.2014 00:08 19,0 C 17,2 C 96 % 1006,7 hPa 0,0 l/m 0 min 0 min 0,0 UV-I 0 W/m 10,7 km/h (2 Bft)
03.08.2014 00:10 18,9 C 17,2 C 96 % 1006,8 hPa 0,0 l/m 0 min 0 min 0,0 UV-I 0 W/m 0,0 km/h (0 Bft)
03.08.2014 00:12 18,9 C 17,2 C 96 % 1006,7 hPa 0,0 l/m 0 min 0 min 0,0 UV-I 0 W/m 14,2 km/h (3 Bft)
03.08.2014 00:14 18,9 C 17,2 C 96 % 1006,7 hPa 0,0 l/m 0 min 0 min 0,0 UV-I 0 W/m 3,5 km/h (1 Bft)
03.08.2014 00:16 18,9 C 17,2 C 96 % 1006,6 hPa 0,0 l/m 0 min 0 min 0,0 UV-I 0 W/m 14,2 km/h (3 Bft)
03.08.2014 00:18 18,9 C 17,2 C 96 % 1006,6 hPa 0,0 l/m 0 min 0 min 0,0 UV-I 0 W/m 14,2 km/h (3 Bft)
03.08.2014 00:20 18,9 C 17,2 C 96 % 1006,6 hPa 0,0 l/m 0 min 0 min 0,0 UV-I 0 W/m 17,7 km/h (3 Bft)
03.08.2014 00:22 18,9 C 17,2 C 96 % 1006,6 hPa 0,0 l/m 0 min 0 min 0,0 UV-I 0 W/m 17,7 km/h (3 Bft)
03.08.2014 00:24 18,9 C 17,2 C 96 % 1006,6 hPa 0,0 l/m 0 min 0 min 0,0 UV-I 0 W/m 17,7 km/h (3 Bft)
03.08.2014 00:26 18,8 C 17,2 C 96 % 1006,5 hPa 0,0 l/m 0 min 0 min 0,0 UV-I 0 W/m 17,7 km/h (3 Bft)
03.08.2014 00:28 18,8 C 17,2 C 96 % 1006,5 hPa 0,0 l/m 0 min 0 min 0,0 UV-I 0 W/m 10,7 km/h (2 Bft)
03.08.2014 00:30 18,8 C 17,2 C 96 % 1006,5 hPa 0,0 l/m 0 min 0 min 0,0 UV-I 0 W/m 14,2 km/h (3 Bft)
03.08.2014 00:32 18,8 C 17,2 C 96 % 1006,5 hPa 0,0 l/m 0 min 0 min 0,0 UV-I 0 W/m 14,2 km/h (3 Bft)
03.08.2014 00:34 18,8 C 17,2 C 96 % 1006,5 hPa 0,0 l/m 0 min 0 min 0,0 UV-I 0 W/m 14,2 km/h (3 Bft)
03.08.2014 00:36 18,8 C 17,2 C 97 % 1006,4 hPa 0,0 l/m 0 min 0 min 0,0 UV-I 0 W/m 14,2 km/h (3 Bft)
03.08.2014 00:38 18,8 C 17,2 C 97 % 1006,5 hPa 0,0 l/m 0 min 0 min 0,0 UV-I 0 W/m 0,0 km/h (0 Bft)
03.08.2014 00:40 18,8 C 17,2 C 97 % 1006,5 hPa 0,0 l/m 0 min 0 min 0,0 UV-I 0 W/m 0,0 km/h (0 Bft)
03.08.2014 00:42 18,8 C 17,2 C 97 % 1006,6 hPa 0,0 l/m 0 min 0 min 0,0 UV-I 0 W/m 3,5 km/h (1 Bft)
03.08.2014 00:44 18,8 C 17,2 C 97 % 1006,5 hPa 0,0 l/m 0 min 0 min 0,0 UV-I 0 W/m 0,0 km/h (0 Bft)
03.08.2014 00:46 18,8 C 17,2 C 97 % 1006,6 hPa 0,0 l/m 0 min 0 min 0,0 UV-I 0 W/m 0,0 km/h (0 Bft)
03.08.2014 00:48 18,8 C 17,2 C 97 % 1006,7 hPa 0,0 l/m 0 min 0 min 0,0 UV-I 0 W/m 14,2 km/h (3 Bft)
03.08.2014 00:50 18,8 C 17,2 C 97 % 1006,8 hPa 0,0 l/m 0 min 0 min 0,0 UV-I 0 W/m 10,7 km/h (2 Bft)
03.08.2014 00:52 18,8 C 17,2 C 97 % 1006,8 hPa 0,0 l/m 0 min 0 min 0,0 UV-I 0 W/m 10,7 km/h (2 Bft)
03.08.2014 00:54 18,8 C 17,2 C 97 % 1006,8 hPa 0,0 l/m 0 min 0 min 0,0 UV-I 0 W/m 14,2 km/h (3 Bft)
03.08.2014 00:56 18,9 C 17,2 C 97 % 1006,8 hPa 0,0 l/m 0 min 0 min 0,0 UV-I 0 W/m 7,1 km/h (2 Bft)
03.08.2014 00:58 18,9 C 17,2 C 97 % 1006,7 hPa 0,0 l/m 0 min 0 min 0,0 UV-I 0 W/m 0,0 km/h (0 Bft)
03.08.2014 01:00 18,9 C 17,2 C 97 % 1006,7 hPa 0,0 l/m 0 min 0 min 0,0 UV-I 0 W/m 3,5 km/h (1 Bft)
03.08.2014 01:02 19,0 C 17,2 C 97 % 1006,7 hPa 0,0 l/m 0 min 0 min 0,0 UV-I 0 W/m 0,0 km/h (0 Bft)
03.08.2014 01:04 19,1 C 17,2 C 97 % 1006,7 hPa 0,0 l/m 0 min 0 min 0,0 UV-I 0 W/m 0,0 km/h (0 Bft)
03.08.2014 01:06 19,1 C 17,8 C 97 % 1006,7 hPa 0,0 l/m 0 min 0 min 0,0 UV-I 0 W/m 0,0 km/h (0 Bft)
03.08.2014 01:08 19,1 C 17,8 C 97 % 1006,7 hPa 0,0 l/m 0 min 0 min 0,0 UV-I 0 W/m 0,0 km/h (0 Bft)
03.08.2014 01:10 19,1 C 17,8 C 97 % 1006,8 hPa 0,0 l/m 0 min 0 min 0,0 UV-I 0 W/m 0,0 km/h (0 Bft)
03.08.2014 01:12 19,1 C 17,8 C 97 % 1006,8 hPa 0,0 l/m 0 min 0 min 0,0 UV-I 0 W/m 0,0 km/h (0 Bft)
03.08.2014 01:14 19,1 C 17,8 C 97 % 1006,8 hPa 0,0 l/m 0 min 0 min 0,0 UV-I 0 W/m 0,0 km/h (0 Bft)
03.08.2014 01:16 19,1 C 17,8 C 97 % 1006,8 hPa 0,0 l/m 0 min 0 min 0,0 UV-I 0 W/m 0,0 km/h (0 Bft)
03.08.2014 01:18 19,1 C 17,2 C 96 % 1006,7 hPa 0,0 l/m 0 min 0 min 0,0 UV-I 0 W/m 0,0 km/h (0 Bft)
03.08.2014 01:20 19,1 C 17,2 C 96 % 1006,8 hPa 0,0 l/m 0 min 0 min 0,0 UV-I 0 W/m 0,0 km/h (0 Bft)
03.08.2014 01:22 19,1 C 17,2 C 96 % 1006,7 hPa 0,0 l/m 0 min 0 min 0,0 UV-I 0 W/m 0,0 km/h (0 Bft)
03.08.2014 01:24 19,0 C 17,2 C 96 % 1006,7 hPa 0,0 l/m 0 min 0 min 0,0 UV-I 0 W/m 0,0 km/h (0 Bft)
03.08.2014 01:26 18,9 C 17,2 C 96 % 1006,8 hPa 0,0 l/m 0 min 0 min 0,0 UV-I 0 W/m 0,0 km/h (0 Bft)
03.08.2014 01:28 18,9 C 17,2 C 96 % 1006,7 hPa 0,0 l/m 0 min 0 min 0,0 UV-I 0 W/m 0,0 km/h (0 Bft)
03.08.2014 01:30 18,8 C 17,2 C 96 % 1006,8 hPa 0,0 l/m 0 min 0 min 0,0 UV-I 0 W/m 0,0 km/h (0 Bft)
03.08.2014 01:32 18,8 C 16,7 C 96 % 1006,7 hPa 0,0 l/m 0 min 0 min 0,0 UV-I 0 W/m 0,0 km/h (0 Bft)
03.08.2014 01:34 18,8 C 16,7 C 96 % 1006,7 hPa 0,0 l/m 0 min 0 min 0,0 UV-I 0 W/m 0,0 km/h (0 Bft)
03.08.2014 01:36 18,7 C 16,7 C 96 % 1006,7 hPa 0,0 l/m 0 min 0 min 0,0 UV-I 0 W/m 0,0 km/h (0 Bft)
03.08.2014 01:38 18,7 C 16,7 C 96 % 1006,7 hPa 0,0 l/m 0 min 0 min 0,0 UV-I 0 W/m 0,0 km/h (0 Bft)
03.08.2014 01:40 18,6 C 16,7 C 96 % 1006,7 hPa 0,0 l/m 0 min 0 min 0,0 UV-I 0 W/m 0,0 km/h (0 Bft)
03.08.2014 01:42 18,6 C 16,7 C 96 % 1006,7 hPa 0,0 l/m 0 min 0 min 0,0 UV-I 0 W/m 0,0 km/h (0 Bft)
03.08.2014 01:44 18,6 C 16,7 C 97 % 1006,7 hPa 0,0 l/m 0 min 0 min 0,0 UV-I 0 W/m 3,5 km/h (1 Bft)
03.08.2014 01:46 18,5 C 16,7 C 97 % 1006,7 hPa 0,0 l/m 0 min 0 min 0,0 UV-I 0 W/m 0,0 km/h (0 Bft)
03.08.2014 01:48 18,4 C 16,7 C 97 % 1006,7 hPa 0,0 l/m 0 min 0 min 0,0 UV-I 0 W/m 0,0 km/h (0 Bft)
03.08.2014 01:50 18,4 C 16,7 C 97 % 1006,7 hPa 0,0 l/m 0 min 0 min 0,0 UV-I 0 W/m 0,0 km/h (0 Bft)
03.08.2014 01:52 18,4 C 16,7 C 97 % 1006,7 hPa 0,0 l/m 0 min 0 min 0,0 UV-I 0 W/m 0,0 km/h (0 Bft)
03.08.2014 01:54 18,4 C 16,7 C 97 % 1006,7 hPa 0,0 l/m 0 min 0 min 0,0 UV-I 0 W/m 0,0 km/h (0 Bft)
03.08.2014 01:56 18,3 C 16,7 C 97 % 1006,7 hPa 0,0 l/m 0 min 0 min 0,0 UV-I 0 W/m 0,0 km/h (0 Bft)
03.08.2014 01:58 18,3 C 16,7 C 97 % 1006,7 hPa 0,0 l/m 0 min 0 min 0,0 UV-I 0 W/m 0,0 km/h (0 Bft)
03.08.2014 02:00 18,3 C 16,7 C 97 % 1006,7 hPa 0,0 l/m 0 min 0 min 0,0 UV-I 0 W/m 0,0 km/h (0 Bft)
03.08.2014 02:02 18,3 C 16,7 C 97 % 1006,7 hPa 0,0 l/m 0 min 0 min 0,0 UV-I 0 W/m 0,0 km/h (0 Bft)
03.08.2014 02:04 18,3 C 16,7 C 97 % 1006,8 hPa 0,0 l/m 0 min 0 min 0,0 UV-I 0 W/m 0,0 km/h (0 Bft)
03.08.2014 02:06 18,3 C 16,7 C 97 % 1006,8 hPa 0,0 l/m 0 min 0 min 0,0 UV-I 0 W/m 0,0 km/h (0 Bft)
03.08.2014 02:08 18,3 C 16,7 C 97 % 1006,7 hPa 0,0 l/m 0 min 0 min 0,0 UV-I 0 W/m 0,0 km/h (0 Bft)
03.08.2014 02:10 18,3 C 16,7 C 97 % 1006,7 hPa 0,0 l/m 0 min 0 min 0,0 UV-I 0 W/m 0,0 km/h (0 Bft)
03.08.2014 02:12 18,3 C 16,7 C 97 % 1006,8 hPa 0,0 l/m 0 min 0 min 0,0 UV-I 0 W/m 0,0 km/h (0 Bft)
03.08.2014 02:14 18,2 C 16,7 C 97 % 1006,7 hPa 0,0 l/m 0 min 0 min 0,0 UV-I 0 W/m 0,0 km/h (0 Bft)
03.08.2014 02:16 18,2 C 16,7 C 98 % 1006,7 hPa 0,0 l/m 0 min 0 min 0,0 UV-I 0 W/m 0,0 km/h (0 Bft)
03.08.2014 02:18 18,2 C 16,7 C 98 % 1006,8 hPa 0,0 l/m 0 min 0 min 0,0 UV-I 0 W/m 0,0 km/h (0 Bft)
03.08.2014 02:20 18,2 C 16,7 C 98 % 1006,7 hPa 0,0 l/m 0 min 0 min 0,0 UV-I 0 W/m 0,0 km/h (0 Bft)
03.08.2014 02:22 18,2 C 16,7 C 98 % 1006,8 hPa 0,0 l/m 0 min 0 min 0,0 UV-I 0 W/m 0,0 km/h (0 Bft)
03.08.2014 02:24 18,2 C 16,7 C 98 % 1006,7 hPa 0,0 l/m 0 min 0 min 0,0 UV-I 0 W/m 0,0 km/h (0 Bft)
03.08.2014 02:26 18,2 C 16,7 C 98 % 1006,7 hPa 0,0 l/m 0 min 0 min 0,0 UV-I 0 W/m 0,0 km/h (0 Bft)
03.08.2014 02:28 18,1 C 16,1 C 98 % 1006,8 hPa 0,0 l/m 0 min 0 min 0,0 UV-I 0 W/m 0,0 km/h (0 Bft)
03.08.2014 02:30 18,1 C 16,1 C 98 % 1006,8 hPa 0,0 l/m 0 min 0 min 0,0 UV-I 0 W/m 0,0 km/h (0 Bft)
03.08.2014 02:32 18,1 C 16,1 C 98 % 1006,8 hPa 0,0 l/m 0 min 0 min 0,0 UV-I 0 W/m 0,0 km/h (0 Bft)
03.08.2014 02:34 18,0 C 16,1 C 98 % 1006,8 hPa 0,0 l/m 0 min 0 min 0,0 UV-I 0 W/m 0,0 km/h (0 Bft)
03.08.2014 02:36 17,9 C 16,1 C 98 % 1006,9 hPa 0,0 l/m 0 min 0 min 0,0 UV-I 0 W/m 0,0 km/h (0 Bft)
03.08.2014 02:38 17,9 C 16,1 C 98 % 1006,9 hPa 0,0 l/m 0 min 0 min 0,0 UV-I 0 W/m 0,0 km/h (0 Bft)
03.08.2014 02:40 17,9 C 16,1 C 98 % 1006,9 hPa 0,0 l/m 0 min 0 min 0,0 UV-I 0 W/m 0,0 km/h (0 Bft)
03.08.2014 02:42 17,9 C 16,1 C 98 % 1006,9 hPa 0,0 l/m 0 min 0 min 0,0 UV-I 0 W/m 0,0 km/h (0 Bft)
03.08.2014 02:44 17,9 C 16,1 C 98 % 1006,9 hPa 0,0 l/m 0 min 0 min 0,0 UV-I 0 W/m 0,0 km/h (0 Bft)
03.08.2014 02:46 17,8 C 16,1 C 98 % 1006,8 hPa 0,0 l/m 0 min 0 min 0,0 UV-I 0 W/m 0,0 km/h (0 Bft)
03.08.2014 02:48 17,8 C 16,1 C 98 % 1006,9 hPa 0,0 l/m 0 min 0 min 0,0 UV-I 0 W/m 0,0 km/h (0 Bft)
03.08.2014 02:50 17,8 C 16,1 C 98 % 1006,9 hPa 0,0 l/m 0 min 0 min 0,0 UV-I 0 W/m 0,0 km/h (0 Bft)
03.08.2014 02:52 17,7 C 16,1 C 98 % 1006,9 hPa 0,0 l/m 0 min 0 min 0,0 UV-I 0 W/m 0,0 km/h (0 Bft)
03.08.2014 02:54 17,7 C 16,1 C 98 % 1006,8 hPa 0,0 l/m 0 min 0 min 0,0 UV-I 0 W/m 0,0 km/h (0 Bft)
03.08.2014 02:56 17,7 C 16,1 C 98 % 1006,9 hPa 0,0 l/m 0 min 0 min 0,0 UV-I 0 W/m 0,0 km/h (0 Bft)
03.08.2014 02:58 17,7 C 16,1 C 98 % 1007,0 hPa 0,0 l/m 0 min 0 min 0,0 UV-I 0 W/m 0,0 km/h (0 Bft)
03.08.2014 03:00 17,6 C 16,1 C 98 % 1007,0 hPa 0,0 l/m 0 min 0 min 0,0 UV-I 0 W/m 0,0 km/h (0 Bft)
03.08.2014 03:02 17,6 C 16,1 C 98 % 1007,1 hPa 0,0 l/m 0 min 0 min 0,0 UV-I 0 W/m 0,0 km/h (0 Bft)
03.08.2014 03:04 17,6 C 16,1 C 98 % 1007,1 hPa 0,0 l/m 0 min 0 min 0,0 UV-I 0 W/m 0,0 km/h (0 Bft)
03.08.2014 03:06 17,6 C 16,1 C 98 % 1007,1 hPa 0,0 l/m 0 min 0 min 0,0 UV-I 0 W/m 3,5 km/h (1 Bft)
03.08.2014 03:08 17,6 C 15,6 C 98 % 1007,1 hPa 0,0 l/m 0 min 0 min 0,0 UV-I 0 W/m 3,5 km/h (1 Bft)
03.08.2014 03:10 17,6 C 15,6 C 98 % 1007,1 hPa 0,0 l/m 0 min 0 min 0,0 UV-I 0 W/m 0,0 km/h (0 Bft)
03.08.2014 03:12 17,6 C 15,6 C 98 % 1007,1 hPa 0,0 l/m 0 min 0 min 0,0 UV-I 0 W/m 0,0 km/h (0 Bft)
03.08.2014 03:14 17,6 C 15,6 C 98 % 1007,2 hPa 0,0 l/m 0 min 0 min 0,0 UV-I 0 W/m 0,0 km/h (0 Bft)
03.08.2014 03:16 17,6 C 15,6 C 98 % 1007,3 hPa 0,0 l/m 0 min 0 min 0,0 UV-I 0 W/m 0,0 km/h (0 Bft)
03.08.2014 03:18 17,6 C 15,6 C 98 % 1007,3 hPa 0,0 l/m 0 min 0 min 0,0 UV-I 0 W/m 0,0 km/h (0 Bft)
03.08.2014 03:20 17,6 C 16,1 C 98 % 1007,3 hPa 0,0 l/m 0 min 0 min 0,0 UV-I 0 W/m 0,0 km/h (0 Bft)
03.08.2014 03:22 17,5 C 15,6 C 98 % 1007,3 hPa 0,0 l/m 0 min 0 min 0,0 UV-I 0 W/m 7,1 km/h (2 Bft)
03.08.2014 03:24 17,5 C 15,6 C 98 % 1007,3 hPa 0,0 l/m 0 min 0 min 0,0 UV-I 0 W/m 0,0 km/h (0 Bft)
03.08.2014 03:26 17,4 C 15,6 C 98 % 1007,3 hPa 0,0 l/m 0 min 0 min 0,0 UV-I 0 W/m 0,0 km/h (0 Bft)
03.08.2014 03:28 17,4 C 15,6 C 98 % 1007,3 hPa 0,0 l/m 0 min 0 min 0,0 UV-I 0 W/m 0,0 km/h (0 Bft)
03.08.2014 03:30 17,3 C 15,6 C 98 % 1007,4 hPa 0,0 l/m 0 min 0 min 0,0 UV-I 0 W/m 0,0 km/h (0 Bft)
03.08.2014 03:32 17,3 C 15,6 C 98 % 1007,5 hPa 0,0 l/m 0 min 0 min 0,0 UV-I 0 W/m 0,0 km/h (0 Bft)
03.08.2014 03:34 17,3 C 16,1 C 98 % 1007,5 hPa 0,0 l/m 0 min 0 min 0,0 UV-I 0 W/m 0,0 km/h (0 Bft)
03.08.2014 03:36 17,4 C 16,1 C 98 % 1007,5 hPa 0,0 l/m 0 min 0 min 0,0 UV-I 0 W/m 0,0 km/h (0 Bft)
03.08.2014 03:38 17,3 C 15,6 C 98 % 1007,5 hPa 0,0 l/m 0 min 0 min 0,0 UV-I 0 W/m 0,0 km/h (0 Bft)
03.08.2014 03:40 17,3 C 15,6 C 98 % 1007,5 hPa 0,0 l/m 0 min 0 min 0,0 UV-I 0 W/m 0,0 km/h (0 Bft)
03.08.2014 03:42 17,3 C 15,6 C 98 % 1007,5 hPa 0,0 l/m 0 min 0 min 0,0 UV-I 0 W/m 0,0 km/h (0 Bft)
03.08.2014 03:44 17,3 C 15,6 C 98 % 1007,5 hPa 0,0 l/m 0 min 0 min 0,0 UV-I 0 W/m 0,0 km/h (0 Bft)
03.08.2014 03:46 17,3 C 16,1 C 98 % 1007,5 hPa 0,0 l/m 0 min 0 min 0,0 UV-I 0 W/m 0,0 km/h (0 Bft)
03.08.2014 03:48 17,3 C 16,1 C 98 % 1007,5 hPa 0,0 l/m 0 min 0 min 0,0 UV-I 0 W/m 0,0 km/h (0 Bft)
03.08.2014 03:50 17,3 C 16,1 C 98 % 1007,6 hPa 0,0 l/m 0 min 0 min 0,0 UV-I 0 W/m 7,1 km/h (2 Bft)
03.08.2014 03:52 17,3 C 16,1 C 99 % 1007,6 hPa 0,0 l/m 0 min 0 min 0,0 UV-I 0 W/m 7,1 km/h (2 Bft)
03.08.2014 03:54 17,3 C 16,1 C 99 % 1007,5 hPa 0,0 l/m 0 min 0 min 0,0 UV-I 0 W/m 0,0 km/h (0 Bft)
03.08.2014 03:56 17,3 C 16,1 C 99 % 1007,5 hPa 0,0 l/m 0 min 0 min 0,0 UV-I 0 W/m 0,0 km/h (0 Bft)
03.08.2014 03:58 17,3 C 16,1 C 99 % 1007,6 hPa 0,0 l/m 0 min 0 min 0,0 UV-I 0 W/m 0,0 km/h (0 Bft)
03.08.2014 04:00 17,3 C 16,1 C 99 % 1007,6 hPa 0,0 l/m 0 min 0 min 0,0 UV-I 0 W/m 10,7 km/h (2 Bft)
03.08.2014 04:02 17,3 C 16,1 C 99 % 1007,6 hPa 0,0 l/m 0 min 0 min 0,0 UV-I 0 W/m 7,1 km/h (2 Bft)
03.08.2014 04:04 17,3 C 16,1 C 99 % 1007,6 hPa 0,0 l/m 0 min 0 min 0,0 UV-I 0 W/m 3,5 km/h (1 Bft)
03.08.2014 04:06 17,3 C 16,1 C 99 % 1007,7 hPa 0,0 l/m 0 min 0 min 0,0 UV-I 0 W/m 14,2 km/h (3 Bft)
03.08.2014 04:08 17,3 C 16,1 C 99 % 1007,8 hPa 0,0 l/m 0 min 0 min 0,0 UV-I 0 W/m 10,7 km/h (2 Bft)
03.08.2014 04:10 17,3 C 16,1 C 99 % 1007,8 hPa 0,0 l/m 0 min 0 min 0,0 UV-I 0 W/m 14,2 km/h (3 Bft)
03.08.2014 04:12 17,3 C 16,1 C 99 % 1007,8 hPa 0,0 l/m 0 min 0 min 0,0 UV-I 0 W/m 14,2 km/h (3 Bft)
03.08.2014 04:14 17,3 C 16,1 C 98 % 1007,8 hPa 0,0 l/m 0 min 0 min 0,0 UV-I 0 W/m 17,7 km/h (3 Bft)
03.08.2014 04:16 17,4 C 16,1 C 98 % 1007,7 hPa 0,0 l/m 0 min 0 min 0,0 UV-I 0 W/m 14,2 km/h (3 Bft)
03.08.2014 04:18 17,4 C 16,1 C 98 % 1007,7 hPa 0,0 l/m 0 min 0 min 0,0 UV-I 0 W/m 17,7 km/h (3 Bft)
03.08.2014 04:20 17,4 C 16,1 C 98 % 1007,7 hPa 0,0 l/m 0 min 0 min 0,0 UV-I 0 W/m 17,7 km/h (3 Bft)
03.08.2014 04:22 17,4 C 16,1 C 98 % 1007,7 hPa 0,0 l/m 0 min 0 min 0,0 UV-I 0 W/m 28,2 km/h (4 Bft)
03.08.2014 04:24 17,5 C 16,1 C 98 % 1007,7 hPa 0,0 l/m 0 min 0 min 0,0 UV-I 0 W/m 21,3 km/h (4 Bft)
03.08.2014 04:26 17,5 C 16,1 C 98 % 1007,7 hPa 0,0 l/m 0 min 0 min 0,0 UV-I 0 W/m 17,7 km/h (3 Bft)
03.08.2014 04:28 17,6 C 16,7 C 98 % 1007,7 hPa 0,0 l/m 0 min 0 min 0,0 UV-I 0 W/m 17,7 km/h (3 Bft)
03.08.2014 04:30 17,6 C 16,1 C 98 % 1007,7 hPa 0,0 l/m 0 min 0 min 0,0 UV-I 0 W/m 17,7 km/h (3 Bft)
03.08.2014 04:32 17,6 C 16,1 C 97 % 1007,7 hPa 0,0 l/m 0 min 0 min 0,0 UV-I 0 W/m 17,7 km/h (3 Bft)
03.08.2014 04:34 17,6 C 16,1 C 97 % 1007,8 hPa 0,0 l/m 0 min 0 min 0,0 UV-I 0 W/m 14,2 km/h (3 Bft)
03.08.2014 04:36 17,7 C 16,1 C 97 % 1007,8 hPa 0,0 l/m 0 min 0 min 0,0 UV-I 0 W/m 14,2 km/h (3 Bft)
03.08.2014 04:38 17,7 C 16,1 C 97 % 1007,8 hPa 0,0 l/m 0 min 0 min 0,0 UV-I 0 W/m 17,7 km/h (3 Bft)
03.08.2014 04:40 17,7 C 16,1 C 96 % 1007,9 hPa 0,0 l/m 0 min 0 min 0,0 UV-I 0 W/m 17,7 km/h (3 Bft)
03.08.2014 04:42 17,7 C 16,1 C 96 % 1007,9 hPa 0,0 l/m 0 min 0 min 0,0 UV-I 0 W/m 10,7 km/h (2 Bft)
03.08.2014 04:44 17,7 C 16,1 C 96 % 1007,9 hPa 0,0 l/m 0 min 0 min 0,0 UV-I 0 W/m 14,2 km/h (3 Bft)
03.08.2014 04:46 17,7 C 16,1 C 95 % 1008,0 hPa 0,0 l/m 0 min 0 min 0,0 UV-I 0 W/m 14,2 km/h (3 Bft)
03.08.2014 04:48 17,7 C 16,1 C 95 % 1008,0 hPa 0,0 l/m 0 min 0 min 0,0 UV-I 0 W/m 14,2 km/h (3 Bft)
03.08.2014 04:50 17,7 C 16,1 C 95 % 1008,1 hPa 0,0 l/m 0 min 0 min 0,0 UV-I 0 W/m 10,7 km/h (2 Bft)
03.08.2014 04:52 17,7 C 16,1 C 94 % 1008,1 hPa 0,0 l/m 0 min 0 min 0,0 UV-I 0 W/m 14,2 km/h (3 Bft)
03.08.2014 04:54 17,7 C 16,1 C 94 % 1008,1 hPa 0,0 l/m 0 min 0 min 0,0 UV-I 0 W/m 14,2 km/h (3 Bft)
03.08.2014 04:56 17,7 C 16,1 C 94 % 1008,1 hPa 0,0 l/m 0 min 0 min 0,0 UV-I 0 W/m 14,2 km/h (3 Bft)
03.08.2014 04:58 17,7 C 16,1 C 94 % 1008,1 hPa 0,0 l/m 0 min 0 min 0,0 UV-I 0 W/m 14,2 km/h (3 Bft)
03.08.2014 05:00 17,6 C 16,1 C 93 % 1008,1 hPa 0,0 l/m 0 min 0 min 0,0 UV-I 0 W/m 10,7 km/h (2 Bft)
03.08.2014 05:02 17,6 C 16,1 C 93 % 1008,1 hPa 0,0 l/m 0 min 0 min 0,0 UV-I 0 W/m 14,2 km/h (3 Bft)
03.08.2014 05:04 17,6 C 16,1 C 93 % 1008,1 hPa 0,0 l/m 0 min 0 min 0,0 UV-I 0 W/m 3,5 km/h (1 Bft)
03.08.2014 05:06 17,5 C 16,1 C 93 % 1008,1 hPa 0,0 l/m 0 min 0 min 0,0 UV-I 0 W/m 0,0 km/h (0 Bft)
03.08.2014 05:08 17,4 C 15,6 C 93 % 1008,1 hPa 0,0 l/m 0 min 0 min 0,0 UV-I 0 W/m 0,0 km/h (0 Bft)
03.08.2014 05:10 17,4 C 15,6 C 93 % 1008,1 hPa 0,0 l/m 0 min 0 min 0,0 UV-I 0 W/m 14,2 km/h (3 Bft)
03.08.2014 05:12 17,4 C 15,6 C 93 % 1008,1 hPa 0,0 l/m 0 min 0 min 0,0 UV-I 0 W/m 0,0 km/h (0 Bft)
03.08.2014 05:14 17,3 C 15,6 C 93 % 1008,1 hPa 0,0 l/m 0 min 0 min 0,0 UV-I 0 W/m 3,5 km/h (1 Bft)
03.08.2014 05:16 17,3 C 15,6 C 93 % 1008,1 hPa 0,0 l/m 0 min 0 min 0,0 UV-I 0 W/m 0,0 km/h (0 Bft)
03.08.2014 05:18 17,2 C 15,6 C 94 % 1008,1 hPa 0,0 l/m 0 min 0 min 0,0 UV-I 0 W/m 0,0 km/h (0 Bft)
03.08.2014 05:20 17,2 C 15,6 C 94 % 1008,1 hPa 0,0 l/m 0 min 0 min 0,0 UV-I 0 W/m 0,0 km/h (0 Bft)
03.08.2014 05:22 17,2 C 15,6 C 94 % 1008,1 hPa 0,0 l/m 0 min 0 min 0,0 UV-I 0 W/m 0,0 km/h (0 Bft)
03.08.2014 05:24 17,2 C 15,6 C 94 % 1008,2 hPa 0,0 l/m 0 min 0 min 0,0 UV-I 0 W/m 3,5 km/h (1 Bft)
03.08.2014 05:26 17,1 C 15,6 C 94 % 1008,1 hPa 0,0 l/m 0 min 0 min 0,0 UV-I 0 W/m 0,0 km/h (0 Bft)
03.08.2014 05:28 17,1 C 15,6 C 94 % 1008,2 hPa 0,0 l/m 0 min 0 min 0,0 UV-I 0 W/m 0,0 km/h (0 Bft)
03.08.2014 05:30 17,0 C 15,6 C 94 % 1008,2 hPa 0,0 l/m 0 min 0 min 0,0 UV-I 0 W/m 0,0 km/h (0 Bft)
03.08.2014 05:32 16,9 C 15,0 C 94 % 1008,2 hPa 0,0 l/m 0 min 0 min 0,0 UV-I 0 W/m 0,0 km/h (0 Bft)
03.08.2014 05:34 16,9 C 15,0 C 94 % 1008,2 hPa 0,0 l/m 0 min 0 min 0,0 UV-I 0 W/m 0,0 km/h (0 Bft)
03.08.2014 05:36 16,9 C 15,0 C 94 % 1008,3 hPa 0,0 l/m 0 min 0 min 0,0 UV-I 0 W/m 0,0 km/h (0 Bft)
03.08.2014 05:38 16,8 C 15,0 C 94 % 1008,3 hPa 0,0 l/m 0 min 0 min 0,0 UV-I 0 W/m 0,0 km/h (0 Bft)
03.08.2014 05:40 16,8 C 15,0 C 94 % 1008,3 hPa 0,0 l/m 0 min 0 min 0,0 UV-I 0 W/m 0,0 km/h (0 Bft)
03.08.2014 05:42 16,8 C 15,0 C 95 % 1008,3 hPa 0,0 l/m 0 min 0 min 0,0 UV-I 0 W/m 0,0 km/h (0 Bft)
03.08.2014 05:44 16,7 C 15,0 C 95 % 1008,3 hPa 0,0 l/m 0 min 0 min 0,0 UV-I 0 W/m 0,0 km/h (0 Bft)
03.08.2014 05:46 16,7 C 15,0 C 95 % 1008,3 hPa 0,0 l/m 0 min 0 min 0,0 UV-I 0 W/m 0,0 km/h (0 Bft)
03.08.2014 05:48 16,7 C 15,0 C 95 % 1008,4 hPa 0,0 l/m 0 min 0 min 0,0 UV-I 0 W/m 0,0 km/h (0 Bft)
03.08.2014 05:50 16,7 C 15,0 C 95 % 1008,3 hPa 0,0 l/m 0 min 0 min 0,0 UV-I 0 W/m 0,0 km/h (0 Bft)
03.08.2014 05:52 16,6 C 15,0 C 95 % 1008,3 hPa 0,0 l/m 0 min 0 min 0,0 UV-I 0 W/m 0,0 km/h (0 Bft)
03.08.2014 05:54 16,6 C 15,0 C 95 % 1008,4 hPa 0,0 l/m 0 min 0 min 0,0 UV-I 0 W/m 0,0 km/h (0 Bft)
03.08.2014 05:56 16,6 C 15,0 C 95 % 1008,4 hPa 0,0 l/m 0 min 0 min 0,0 UV-I 0 W/m 0,0 km/h (0 Bft)
03.08.2014 05:58 16,6 C 15,0 C 95 % 1008,4 hPa 0,0 l/m 0 min 0 min 0,0 UV-I 0 W/m 0,0 km/h (0 Bft)
03.08.2014 06:00 16,5 C 15,0 C 95 % 1008,5 hPa 0,0 l/m 0 min 0 min 0,0 UV-I 0 W/m 0,0 km/h (0 Bft)
03.08.2014 06:02 16,4 C 15,0 C 95 % 1008,5 hPa 0,0 l/m 0 min 0 min 0,0 UV-I 0 W/m 0,0 km/h (0 Bft)
03.08.2014 06:05 16,4 C 15,0 C 96 % 1008,6 hPa 0,0 l/m 0 min 0 min 0,0 UV-I 0 W/m 0,0 km/h (0 Bft)
03.08.2014 06:06 16,4 C 14,4 C 95 % 1008,6 hPa 0,0 l/m 0 min 0 min 0,0 UV-I 0 W/m 0,0 km/h (0 Bft)
03.08.2014 06:08 16,3 C 14,4 C 96 % 1008,6 hPa 0,0 l/m 0 min 0 min 0,0 UV-I 5 W/m 0,0 km/h (0 Bft)
03.08.2014 06:10 16,3 C 14,4 C 96 % 1008,6 hPa 0,0 l/m 0 min 0 min 0,0 UV-I 5 W/m 0,0 km/h (0 Bft)
03.08.2014 06:12 16,3 C 14,4 C 96 % 1008,6 hPa 0,0 l/m 0 min 0 min 0,0 UV-I 6 W/m 0,0 km/h (0 Bft)
03.08.2014 06:14 16,3 C 14,4 C 96 % 1008,7 hPa 0,0 l/m 0 min 0 min 0,0 UV-I 7 W/m 0,0 km/h (0 Bft)
03.08.2014 06:16 16,3 C 14,4 C 96 % 1008,7 hPa 0,0 l/m 0 min 0 min 0,0 UV-I 9 W/m 0,0 km/h (0 Bft)
03.08.2014 06:18 16,2 C 14,4 C 96 % 1008,7 hPa 0,0 l/m 0 min 0 min 0,0 UV-I 11 W/m 0,0 km/h (0 Bft)
03.08.2014 06:20 16,2 C 14,4 C 96 % 1008,7 hPa 0,0 l/m 0 min 0 min 0,0 UV-I 12 W/m 0,0 km/h (0 Bft)
03.08.2014 06:22 16,2 C 14,4 C 96 % 1008,7 hPa 0,0 l/m 0 min 0 min 0,0 UV-I 14 W/m 0,0 km/h (0 Bft)
03.08.2014 06:24 16,2 C 14,4 C 96 % 1008,8 hPa 0,0 l/m 0 min 0 min 0,0 UV-I 17 W/m 0,0 km/h (0 Bft)
03.08.2014 06:26 16,2 C 14,4 C 97 % 1008,8 hPa 0,0 l/m 0 min 0 min 0,0 UV-I 19 W/m 0,0 km/h (0 Bft)
03.08.2014 06:28 16,1 C 14,4 C 96 % 1008,8 hPa 0,0 l/m 0 min 0 min 0,0 UV-I 19 W/m 0,0 km/h (0 Bft)
03.08.2014 06:30 16,1 C 14,4 C 97 % 1008,8 hPa 0,0 l/m 0 min 0 min 0,0 UV-I 21 W/m 0,0 km/h (0 Bft)
03.08.2014 06:32 16,1 C 14,4 C 97 % 1008,8 hPa 0,0 l/m 0 min 0 min 0,0 UV-I 22 W/m 0,0 km/h (0 Bft)
03.08.2014 06:34 16,1 C 14,4 C 97 % 1008,9 hPa 0,0 l/m 0 min 0 min 0,0 UV-I 23 W/m 0,0 km/h (0 Bft)
03.08.2014 06:36 16,1 C 14,4 C 97 % 1008,8 hPa 0,0 l/m 0 min 0 min 0,0 UV-I 25 W/m 0,0 km/h (0 Bft)
03.08.2014 06:38 16,1 C 14,4 C 97 % 1008,8 hPa 0,0 l/m 0 min 0 min 0,0 UV-I 26 W/m 0,0 km/h (0 Bft)
03.08.2014 06:40 16,1 C 14,4 C 97 % 1008,8 hPa 0,0 l/m 0 min 0 min 0,0 UV-I 27 W/m 0,0 km/h (0 Bft)
03.08.2014 06:42 16,1 C 14,4 C 97 % 1008,8 hPa 0,0 l/m 0 min 0 min 0,0 UV-I 29 W/m 0,0 km/h (0 Bft)
03.08.2014 06:44 16,1 C 14,4 C 97 % 1008,8 hPa 0,0 l/m 0 min 0 min 0,0 UV-I 31 W/m 0,0 km/h (0 Bft)
03.08.2014 06:46 16,1 C 14,4 C 97 % 1008,8 hPa 0,0 l/m 0 min 0 min 0,0 UV-I 33 W/m 0,0 km/h (0 Bft)
03.08.2014 06:48 16,1 C 14,4 C 97 % 1008,8 hPa 0,0 l/m 0 min 0 min 0,0 UV-I 36 W/m 0,0 km/h (0 Bft)
03.08.2014 06:50 16,1 C 15,0 C 97 % 1008,8 hPa 0,0 l/m 0 min 0 min 0,0 UV-I 38 W/m 0,0 km/h (0 Bft)
03.08.2014 06:52 16,1 C 15,0 C 97 % 1008,9 hPa 0,0 l/m 0 min 0 min 0,0 UV-I 40 W/m 0,0 km/h (0 Bft)
03.08.2014 06:54 16,1 C 15,0 C 97 % 1008,8 hPa 0,0 l/m 0 min 0 min 0,0 UV-I 42 W/m 0,0 km/h (0 Bft)
03.08.2014 06:56 16,2 C 15,0 C 97 % 1008,9 hPa 0,0 l/m 0 min 0 min 0,0 UV-I 44 W/m 0,0 km/h (0 Bft)
03.08.2014 06:58 16,2 C 15,0 C 97 % 1009,0 hPa 0,0 l/m 0 min 0 min 0,0 UV-I 51 W/m 0,0 km/h (0 Bft)
03.08.2014 07:00 16,2 C 15,0 C 97 % 1009,0 hPa 0,0 l/m 2 min 0 min 0,0 UV-I 73 W/m 0,0 km/h (0 Bft)
03.08.2014 07:02 16,2 C 15,0 C 97 % 1009,0 hPa 0,0 l/m 2 min 0 min 0,0 UV-I 115 W/m 0,0 km/h (0 Bft)
03.08.2014 07:04 16,3 C 15,0 C 97 % 1009,2 hPa 0,0 l/m 2 min 0 min 0,0 UV-I 120 W/m 0,0 km/h (0 Bft)
03.08.2014 07:06 16,3 C 15,0 C 98 % 1009,1 hPa 0,0 l/m 2 min 0 min 0,0 UV-I 120 W/m 0,0 km/h (0 Bft)
03.08.2014 07:08 16,3 C 15,0 C 98 % 1009,1 hPa 0,0 l/m 2 min 0 min 0,0 UV-I 122 W/m 0,0 km/h (0 Bft)
03.08.2014 07:10 16,3 C 15,0 C 98 % 1009,1 hPa 0,0 l/m 2 min 0 min 0,0 UV-I 126 W/m 0,0 km/h (0 Bft)
03.08.2014 07:12 16,4 C 15,0 C 98 % 1009,1 hPa 0,0 l/m 2 min 0 min 0,0 UV-I 104 W/m 0,0 km/h (0 Bft)
03.08.2014 07:14 16,4 C 15,0 C 97 % 1009,1 hPa 0,0 l/m 2 min 0 min 0,0 UV-I 114 W/m 0,0 km/h (0 Bft)
03.08.2014 07:16 16,4 C 15,0 C 97 % 1009,2 hPa 0,0 l/m 2 min 0 min 0,0 UV-I 140 W/m 0,0 km/h (0 Bft)
03.08.2014 07:18 16,4 C 15,0 C 97 % 1009,2 hPa 0,0 l/m 2 min 0 min 0,0 UV-I 142 W/m 0,0 km/h (0 Bft)
03.08.2014 07:20 16,5 C 15,0 C 97 % 1009,2 hPa 0,0 l/m 2 min 0 min 0,0 UV-I 120 W/m 0,0 km/h (0 Bft)
03.08.2014 07:22 16,6 C 15,0 C 97 % 1009,3 hPa 0,0 l/m 2 min 0 min 0,0 UV-I 132 W/m 0,0 km/h (0 Bft)
03.08.2014 07:24 16,6 C 15,0 C 97 % 1009,3 hPa 0,0 l/m 2 min 0 min 0,0 UV-I 138 W/m 0,0 km/h (0 Bft)
03.08.2014 07:26 16,7 C 15,0 C 97 % 1009,2 hPa 0,0 l/m 2 min 0 min 0,0 UV-I 159 W/m 0,0 km/h (0 Bft)
03.08.2014 07:28 16,7 C 15,6 C 97 % 1009,3 hPa 0,0 l/m 2 min 0 min 0,0 UV-I 176 W/m 3,5 km/h (1 Bft)
03.08.2014 07:30 16,7 C 15,6 C 97 % 1009,3 hPa 0,0 l/m 2 min 0 min 0,0 UV-I 197 W/m 0,0 km/h (0 Bft)
03.08.2014 07:32 16,8 C 15,6 C 97 % 1009,3 hPa 0,0 l/m 2 min 0 min 0,0 UV-I 188 W/m 0,0 km/h (0 Bft)
03.08.2014 07:34 16,8 C 15,6 C 97 % 1009,3 hPa 0,0 l/m 2 min 0 min 0,0 UV-I 189 W/m 3,5 km/h (1 Bft)
03.08.2014 07:36 16,9 C 15,6 C 96 % 1009,4 hPa 0,0 l/m 2 min 0 min 0,0 UV-I 228 W/m 0,0 km/h (0 Bft)
03.08.2014 07:38 16,9 C 16,1 C 96 % 1009,4 hPa 0,0 l/m 2 min 0 min 0,0 UV-I 202 W/m 0,0 km/h (0 Bft)
03.08.2014 07:40 17,0 C 16,1 C 96 % 1009,4 hPa 0,0 l/m 2 min 0 min 0,0 UV-I 166 W/m 0,0 km/h (0 Bft)
03.08.2014 07:42 17,1 C 16,1 C 96 % 1009,4 hPa 0,0 l/m 2 min 0 min 0,0 UV-I 192 W/m 0,0 km/h (0 Bft)
03.08.2014 07:44 17,1 C 16,1 C 95 % 1009,4 hPa 0,0 l/m 2 min 0 min 0,0 UV-I 195 W/m 0,0 km/h (0 Bft)
03.08.2014 07:46 17,2 C 16,1 C 95 % 1009,3 hPa 0,0 l/m 2 min 0 min 0,0 UV-I 154 W/m 10,7 km/h (2 Bft)
03.08.2014 07:48 17,2 C 16,1 C 95 % 1009,4 hPa 0,0 l/m 2 min 0 min 0,0 UV-I 144 W/m 7,1 km/h (2 Bft)
03.08.2014 07:50 17,3 C 16,1 C 95 % 1009,4 hPa 0,0 l/m 2 min 0 min 0,0 UV-I 166 W/m 0,0 km/h (0 Bft)
03.08.2014 07:52 17,3 C 16,1 C 95 % 1009,4 hPa 0,0 l/m 2 min 0 min 0,0 UV-I 230 W/m 0,0 km/h (0 Bft)
03.08.2014 07:54 17,4 C 16,7 C 95 % 1009,5 hPa 0,0 l/m 2 min 0 min 0,0 UV-I 291 W/m 0,0 km/h (0 Bft)
03.08.2014 07:56 17,5 C 16,7 C 94 % 1009,5 hPa 0,0 l/m 2 min 0 min 0,0 UV-I 319 W/m 10,7 km/h (2 Bft)
03.08.2014 07:58 17,6 C 16,7 C 95 % 1009,5 hPa 0,0 l/m 2 min 0 min 0,0 UV-I 323 W/m 14,2 km/h (3 Bft)
03.08.2014 08:00 17,6 C 16,7 C 94 % 1009,6 hPa 0,0 l/m 2 min 0 min 0,0 UV-I 290 W/m 7,1 km/h (2 Bft)
03.08.2014 08:02 17,7 C 16,7 C 94 % 1009,5 hPa 0,0 l/m 2 min 0 min 0,0 UV-I 287 W/m 0,0 km/h (0 Bft)
03.08.2014 08:04 17,8 C 16,7 C 94 % 1009,6 hPa 0,0 l/m 2 min 0 min 0,0 UV-I 238 W/m 0,0 km/h (0 Bft)
03.08.2014 08:06 17,9 C 17,2 C 94 % 1009,6 hPa 0,0 l/m 2 min 0 min 0,0 UV-I 328 W/m 10,7 km/h (2 Bft)
03.08.2014 08:08 18,0 C 17,2 C 93 % 1009,7 hPa 0,0 l/m 2 min 0 min 0,0 UV-I 348 W/m 14,2 km/h (3 Bft)
03.08.2014 08:10 18,0 C 17,2 C 93 % 1009,7 hPa 0,0 l/m 2 min 0 min 0,0 UV-I 350 W/m 14,2 km/h (3 Bft)
03.08.2014 08:12 18,0 C 17,2 C 92 % 1009,8 hPa 0,0 l/m 2 min 0 min 0,0 UV-I 345 W/m 17,7 km/h (3 Bft)
03.08.2014 08:14 18,1 C 17,2 C 92 % 1009,8 hPa 0,0 l/m 2 min 0 min 0,0 UV-I 254 W/m 14,2 km/h (3 Bft)
03.08.2014 08:16 18,1 C 16,7 C 92 % 1009,8 hPa 0,0 l/m 2 min 0 min 0,0 UV-I 187 W/m 21,3 km/h (4 Bft)
03.08.2014 08:18 18,2 C 17,2 C 91 % 1009,9 hPa 0,0 l/m 2 min 0 min 0,0 UV-I 262 W/m 17,7 km/h (3 Bft)
03.08.2014 08:20 18,2 C 17,2 C 91 % 1009,9 hPa 0,0 l/m 2 min 0 min 0,0 UV-I 328 W/m 14,2 km/h (3 Bft)
03.08.2014 08:22 18,3 C 17,2 C 91 % 1009,9 hPa 0,0 l/m 2 min 0 min 0,0 UV-I 348 W/m 14,2 km/h (3 Bft)
03.08.2014 08:24 18,4 C 17,2 C 91 % 1009,8 hPa 0,0 l/m 2 min 0 min 0,0 UV-I 310 W/m 14,2 km/h (3 Bft)
03.08.2014 08:26 18,4 C 17,2 C 91 % 1009,9 hPa 0,0 l/m 2 min 0 min 0,0 UV-I 324 W/m 17,7 km/h (3 Bft)
03.08.2014 08:28 18,5 C 17,2 C 91 % 1009,9 hPa 0,0 l/m 2 min 0 min 0,0 UV-I 338 W/m 14,2 km/h (3 Bft)
03.08.2014 08:30 18,6 C 17,2 C 90 % 1009,9 hPa 0,0 l/m 2 min 0 min 0,0 UV-I 262 W/m 10,7 km/h (2 Bft)
03.08.2014 08:32 18,6 C 17,2 C 90 % 1009,9 hPa 0,0 l/m 2 min 0 min 0,0 UV-I 245 W/m 0,0 km/h (0 Bft)
03.08.2014 08:34 18,6 C 17,2 C 90 % 1010,0 hPa 0,0 l/m 2 min 0 min 0,0 UV-I 238 W/m 14,2 km/h (3 Bft)
03.08.2014 08:36 18,6 C 17,2 C 90 % 1010,0 hPa 0,0 l/m 2 min 0 min 0,0 UV-I 264 W/m 10,7 km/h (2 Bft)
03.08.2014 08:38 18,7 C 17,2 C 90 % 1010,0 hPa 0,0 l/m 2 min 0 min 0,0 UV-I 284 W/m 10,7 km/h (2 Bft)
03.08.2014 08:40 18,6 C 17,2 C 90 % 1010,0 hPa 0,0 l/m 2 min 0 min 0,0 UV-I 331 W/m 0,0 km/h (0 Bft)
03.08.2014 08:42 18,7 C 17,2 C 90 % 1010,0 hPa 0,0 l/m 2 min 0 min 0,0 UV-I 240 W/m 7,1 km/h (2 Bft)
03.08.2014 08:44 18,7 C 17,2 C 90 % 1010,1 hPa 0,0 l/m 0 min 0 min 0,0 UV-I 185 W/m 7,1 km/h (2 Bft)
03.08.2014 08:46 18,7 C 17,2 C 89 % 1010,1 hPa 0,0 l/m 2 min 0 min 0,0 UV-I 247 W/m 0,0 km/h (0 Bft)
03.08.2014 08:48 18,8 C 17,2 C 89 % 1010,1 hPa 0,0 l/m 2 min 0 min 0,0 UV-I 360 W/m 0,0 km/h (0 Bft)
03.08.2014 08:50 18,9 C 17,8 C 90 % 1010,0 hPa 0,0 l/m 2 min 0 min 0,2 UV-I 358 W/m 10,7 km/h (2 Bft)
03.08.2014 08:52 18,9 C 17,8 C 89 % 1010,1 hPa 0,0 l/m 2 min 0 min 0,0 UV-I 277 W/m 10,7 km/h (2 Bft)
03.08.2014 08:54 19,1 C 17,8 C 89 % 1010,1 hPa 0,0 l/m 2 min 0 min 0,2 UV-I 307 W/m 14,2 km/h (3 Bft)
03.08.2014 08:56 19,1 C 17,8 C 88 % 1010,1 hPa 0,0 l/m 2 min 0 min 0,3 UV-I 316 W/m 14,2 km/h (3 Bft)
03.08.2014 08:58 19,2 C 17,8 C 88 % 1010,1 hPa 0,0 l/m 2 min 0 min 0,5 UV-I 318 W/m 14,2 km/h (3 Bft)
03.08.2014 09:00 19,2 C 17,8 C 88 % 1010,1 hPa 0,0 l/m 2 min 0 min 0,6 UV-I 390 W/m 14,2 km/h (3 Bft)
03.08.2014 09:02 19,2 C 17,8 C 88 % 1010,2 hPa 0,0 l/m 2 min 0 min 0,6 UV-I 398 W/m 14,2 km/h (3 Bft)
03.08.2014 09:04 19,3 C 17,8 C 88 % 1010,2 hPa 0,0 l/m 2 min 0 min 0,5 UV-I 315 W/m 14,2 km/h (3 Bft)
03.08.2014 09:06 19,3 C 17,8 C 88 % 1010,1 hPa 0,0 l/m 2 min 0 min 0,3 UV-I 258 W/m 14,2 km/h (3 Bft)
03.08.2014 09:08 19,3 C 17,8 C 87 % 1010,2 hPa 0,0 l/m 2 min 0 min 0,6 UV-I 315 W/m 10,7 km/h (2 Bft)
03.08.2014 09:10 19,3 C 17,8 C 87 % 1010,1 hPa 0,0 l/m 2 min 0 min 0,6 UV-I 302 W/m 21,3 km/h (4 Bft)
03.08.2014 09:12 19,3 C 17,8 C 88 % 1010,1 hPa 0,0 l/m 2 min 0 min 0,6 UV-I 273 W/m 14,2 km/h (3 Bft)
03.08.2014 09:14 19,3 C 17,8 C 88 % 1010,2 hPa 0,0 l/m 2 min 0 min 0,8 UV-I 288 W/m 14,2 km/h (3 Bft)
03.08.2014 09:16 19,4 C 17,8 C 88 % 1010,2 hPa 0,0 l/m 2 min 0 min 0,9 UV-I 422 W/m 14,2 km/h (3 Bft)
03.08.2014 09:18 19,4 C 17,8 C 88 % 1010,2 hPa 0,0 l/m 2 min 0 min 1,0 UV-I 421 W/m 0,0 km/h (0 Bft)
03.08.2014 09:20 19,5 C 17,8 C 88 % 1010,3 hPa 0,0 l/m 2 min 0 min 0,9 UV-I 449 W/m 0,0 km/h (0 Bft)
03.08.2014 09:22 19,6 C 17,8 C 88 % 1010,3 hPa 0,0 l/m 2 min 0 min 0,8 UV-I 254 W/m 0,0 km/h (0 Bft)
03.08.2014 09:24 19,7 C 17,8 C 88 % 1010,3 hPa 0,0 l/m 0 min 0 min 0,8 UV-I 224 W/m 0,0 km/h (0 Bft)
03.08.2014 09:26 19,6 C 18,3 C 87 % 1010,3 hPa 0,0 l/m 2 min 0 min 0,9 UV-I 312 W/m 3,5 km/h (1 Bft)
03.08.2014 09:28 19,6 C 18,3 C 86 % 1010,3 hPa 0,0 l/m 2 min 0 min 0,9 UV-I 281 W/m 10,7 km/h (2 Bft)
03.08.2014 09:30 19,6 C 18,3 C 87 % 1010,3 hPa 0,0 l/m 2 min 0 min 0,8 UV-I 263 W/m 17,7 km/h (3 Bft)
03.08.2014 09:32 19,6 C 18,3 C 87 % 1010,4 hPa 0,0 l/m 0 min 0 min 0,8 UV-I 225 W/m 10,7 km/h (2 Bft)
03.08.2014 09:34 19,5 C 17,8 C 87 % 1010,4 hPa 0,0 l/m 0 min 0 min 0,9 UV-I 241 W/m 10,7 km/h (2 Bft)
03.08.2014 09:36 19,5 C 18,3 C 87 % 1010,4 hPa 0,0 l/m 2 min 0 min 1,1 UV-I 315 W/m 10,7 km/h (2 Bft)
03.08.2014 09:38 19,6 C 18,3 C 87 % 1010,5 hPa 0,0 l/m 2 min 0 min 1,2 UV-I 349 W/m 17,7 km/h (3 Bft)
03.08.2014 09:40 19,7 C 18,3 C 87 % 1010,5 hPa 0,0 l/m 2 min 0 min 1,3 UV-I 344 W/m 3,5 km/h (1 Bft)
03.08.2014 09:42 19,8 C 18,9 C 88 % 1010,5 hPa 0,0 l/m 2 min 0 min 1,5 UV-I 486 W/m 14,2 km/h (3 Bft)
03.08.2014 09:44 19,9 C 20,0 C 86 % 1010,5 hPa 0,0 l/m 2 min 0 min 1,5 UV-I 505 W/m 0,0 km/h (0 Bft)
03.08.2014 09:46 20,0 C 20,0 C 85 % 1010,5 hPa 0,0 l/m 2 min 0 min 1,5 UV-I 542 W/m 14,2 km/h (3 Bft)
03.08.2014 09:48 20,1 C 20,0 C 85 % 1010,5 hPa 0,0 l/m 2 min 0 min 1,5 UV-I 591 W/m 14,2 km/h (3 Bft)
03.08.2014 09:50 20,1 C 20,0 C 85 % 1010,5 hPa 0,0 l/m 2 min 0 min 1,5 UV-I 434 W/m 10,7 km/h (2 Bft)
03.08.2014 09:52 20,2 C 20,6 C 85 % 1010,5 hPa 0,0 l/m 2 min 0 min 1,3 UV-I 354 W/m 0,0 km/h (0 Bft)
03.08.2014 09:54 20,3 C 20,6 C 85 % 1010,5 hPa 0,0 l/m 2 min 0 min 1,5 UV-I 417 W/m 7,1 km/h (2 Bft)
03.08.2014 09:56 20,6 C 20,6 C 85 % 1010,5 hPa 0,0 l/m 2 min 0 min 1,5 UV-I 450 W/m 0,0 km/h (0 Bft)
03.08.2014 09:58 20,5 C 21,1 C 83 % 1010,5 hPa 0,0 l/m 2 min 0 min 1,5 UV-I 391 W/m 0,0 km/h (0 Bft)
03.08.2014 10:00 20,6 C 21,7 C 85 % 1010,5 hPa 0,0 l/m 2 min 0 min 1,6 UV-I 438 W/m 0,0 km/h (0 Bft)
03.08.2014 10:02 20,8 C 22,2 C 84 % 1010,5 hPa 0,0 l/m 2 min 0 min 1,7 UV-I 474 W/m 17,7 km/h (3 Bft)
03.08.2014 10:04 20,7 C 22,8 C 84 % 1010,5 hPa 0,0 l/m 2 min 0 min 1,9 UV-I 579 W/m 14,2 km/h (3 Bft)
03.08.2014 10:06 20,7 C 22,8 C 83 % 1010,5 hPa 0,0 l/m 2 min 0 min 1,9 UV-I 495 W/m 14,2 km/h (3 Bft)
03.08.2014 10:08 20,7 C 22,8 C 83 % 1010,5 hPa 0,0 l/m 2 min 0 min 1,8 UV-I 488 W/m 14,2 km/h (3 Bft)
03.08.2014 10:10 20,9 C 23,3 C 84 % 1010,5 hPa 0,0 l/m 2 min 0 min 1,9 UV-I 510 W/m 0,0 km/h (0 Bft)
03.08.2014 10:12 21,0 C 23,3 C 83 % 1010,5 hPa 0,0 l/m 2 min 0 min 2,0 UV-I 518 W/m 14,2 km/h (3 Bft)
03.08.2014 10:14 21,1 C 23,9 C 83 % 1010,5 hPa 0,0 l/m 2 min 0 min 2,0 UV-I 503 W/m 17,7 km/h (3 Bft)
03.08.2014 10:16 21,1 C 23,9 C 83 % 1010,5 hPa 0,0 l/m 2 min 0 min 2,1 UV-I 566 W/m 0,0 km/h (0 Bft)
03.08.2014 10:18 21,2 C 25,0 C 82 % 1010,5 hPa 0,0 l/m 2 min 0 min 2,2 UV-I 607 W/m 0,0 km/h (0 Bft)
03.08.2014 10:20 21,3 C 25,0 C 82 % 1010,6 hPa 0,0 l/m 2 min 0 min 2,3 UV-I 608 W/m 17,7 km/h (3 Bft)
03.08.2014 10:22 21,3 C 25,6 C 81 % 1010,5 hPa 0,0 l/m 2 min 0 min 2,3 UV-I 601 W/m 14,2 km/h (3 Bft)
03.08.2014 10:24 21,4 C 25,0 C 81 % 1010,6 hPa 0,0 l/m 2 min 0 min 2,4 UV-I 605 W/m 0,0 km/h (0 Bft)
03.08.2014 10:26 21,4 C 25,6 C 80 % 1010,6 hPa 0,0 l/m 2 min 0 min 2,4 UV-I 610 W/m 0,0 km/h (0 Bft)
03.08.2014 10:28 21,6 C 25,6 C 81 % 1010,6 hPa 0,0 l/m 2 min 0 min 2,4 UV-I 594 W/m 17,7 km/h (3 Bft)
03.08.2014 10:30 21,6 C 26,1 C 80 % 1010,7 hPa 0,0 l/m 2 min 0 min 2,4 UV-I 618 W/m 17,7 km/h (3 Bft)
03.08.2014 10:32 21,6 C 26,1 C 79 % 1010,7 hPa 0,0 l/m 2 min 0 min 2,5 UV-I 602 W/m 10,7 km/h (2 Bft)
03.08.2014 10:34 21,7 C 25,6 C 80 % 1010,7 hPa 0,0 l/m 2 min 0 min 2,4 UV-I 600 W/m 14,2 km/h (3 Bft)
03.08.2014 10:36 21,7 C 25,6 C 79 % 1010,6 hPa 0,0 l/m 2 min 0 min 2,4 UV-I 579 W/m 14,2 km/h (3 Bft)
03.08.2014 10:38 21,8 C 25,6 C 81 % 1010,7 hPa 0,0 l/m 2 min 0 min 2,9 UV-I 580 W/m 10,7 km/h (2 Bft)
03.08.2014 10:40 22,1 C 25,0 C 80 % 1010,7 hPa 0,0 l/m 2 min 0 min 2,9 UV-I 724 W/m 0,0 km/h (0 Bft)
03.08.2014 10:42 22,2 C 25,6 C 79 % 1010,7 hPa 0,0 l/m 2 min 0 min 2,9 UV-I 722 W/m 14,2 km/h (3 Bft)
03.08.2014 10:44 22,3 C 25,6 C 77 % 1010,7 hPa 0,0 l/m 2 min 0 min 2,8 UV-I 728 W/m 17,7 km/h (3 Bft)
03.08.2014 10:46 22,4 C 25,0 C 78 % 1010,8 hPa 0,0 l/m 2 min 0 min 3,1 UV-I 734 W/m 17,7 km/h (3 Bft)
03.08.2014 10:48 22,6 C 25,0 C 77 % 1010,8 hPa 0,0 l/m 2 min 0 min 3,1 UV-I 729 W/m 14,2 km/h (3 Bft)
03.08.2014 10:50 22,6 C 25,0 C 75 % 1010,8 hPa 0,0 l/m 2 min 0 min 3,1 UV-I 739 W/m 24,7 km/h (4 Bft)
03.08.2014 10:52 22,7 C 25,0 C 75 % 1010,8 hPa 0,0 l/m 2 min 0 min 3,0 UV-I 690 W/m 21,3 km/h (4 Bft)
03.08.2014 10:54 22,9 C 24,4 C 78 % 1010,8 hPa 0,0 l/m 2 min 0 min 2,6 UV-I 632 W/m 14,2 km/h (3 Bft)
03.08.2014 10:56 22,7 C 23,3 C 75 % 1010,9 hPa 0,0 l/m 2 min 0 min 2,1 UV-I 362 W/m 21,3 km/h (4 Bft)
03.08.2014 10:58 22,4 C 22,8 C 75 % 1010,9 hPa 0,0 l/m 2 min 0 min 2,0 UV-I 370 W/m 14,2 km/h (3 Bft)
03.08.2014 11:00 22,3 C 22,8 C 77 % 1010,9 hPa 0,0 l/m 2 min 0 min 2,2 UV-I 384 W/m 17,7 km/h (3 Bft)
03.08.2014 11:02 22,1 C 22,8 C 76 % 1010,9 hPa 0,0 l/m 2 min 0 min 2,1 UV-I 389 W/m 14,2 km/h (3 Bft)
03.08.2014 11:04 22,1 C 22,8 C 77 % 1010,9 hPa 0,0 l/m 2 min 0 min 2,4 UV-I 450 W/m 14,2 km/h (3 Bft)
03.08.2014 11:06 22,2 C 23,3 C 78 % 1011,0 hPa 0,0 l/m 2 min 0 min 2,7 UV-I 459 W/m 17,7 km/h (3 Bft)
03.08.2014 11:08 22,4 C 23,3 C 76 % 1011,0 hPa 0,0 l/m 2 min 0 min 3,0 UV-I 608 W/m 17,7 km/h (3 Bft)
03.08.2014 11:10 22,4 C 22,8 C 76 % 1011,0 hPa 0,0 l/m 2 min 0 min 2,3 UV-I 497 W/m 17,7 km/h (3 Bft)
03.08.2014 11:12 22,3 C 22,2 C 76 % 1011,0 hPa 0,0 l/m 0 min 0 min 1,8 UV-I 250 W/m 10,7 km/h (2 Bft)
03.08.2014 11:14 22,0 C 21,7 C 77 % 1011,0 hPa 0,0 l/m 0 min 0 min 2,1 UV-I 338 W/m 0,0 km/h (0 Bft)
03.08.2014 11:16 22,1 C 22,2 C 79 % 1011,0 hPa 0,0 l/m 2 min 0 min 2,9 UV-I 535 W/m 14,2 km/h (3 Bft)
03.08.2014 11:18 22,2 C 22,8 C 79 % 1011,0 hPa 0,0 l/m 2 min 0 min 3,2 UV-I 656 W/m 14,2 km/h (3 Bft)
03.08.2014 11:20 22,6 C 23,3 C 80 % 1011,0 hPa 0,0 l/m 2 min 0 min 3,6 UV-I 691 W/m 10,7 km/h (2 Bft)
03.08.2014 11:22 22,8 C 23,3 C 78 % 1010,9 hPa 0,0 l/m 2 min 0 min 3,7 UV-I 732 W/m 14,2 km/h (3 Bft)
03.08.2014 11:24 22,8 C 22,8 C 77 % 1011,0 hPa 0,0 l/m 2 min 0 min 3,7 UV-I 738 W/m 17,7 km/h (3 Bft)
03.08.2014 11:26 23,1 C 22,8 C 78 % 1011,0 hPa 0,0 l/m 2 min 0 min 3,7 UV-I 736 W/m 7,1 km/h (2 Bft)
03.08.2014 11:28 23,2 C 22,8 C 76 % 1011,0 hPa 0,0 l/m 2 min 0 min 3,6 UV-I 735 W/m 21,3 km/h (4 Bft)
03.08.2014 11:30 23,2 C 23,3 C 78 % 1011,0 hPa 0,0 l/m 2 min 0 min 3,6 UV-I 712 W/m 24,7 km/h (4 Bft)
03.08.2014 11:32 23,2 C 23,3 C 76 % 1011,1 hPa 0,0 l/m 2 min 0 min 3,7 UV-I 708 W/m 14,2 km/h (3 Bft)
03.08.2014 11:34 23,1 C 23,9 C 75 % 1011,1 hPa 0,0 l/m 2 min 0 min 3,8 UV-I 715 W/m 17,7 km/h (3 Bft)
03.08.2014 11:36 22,9 C 24,4 C 75 % 1011,0 hPa 0,0 l/m 2 min 0 min 3,8 UV-I 696 W/m 14,2 km/h (3 Bft)
03.08.2014 11:38 22,9 C 24,4 C 75 % 1011,0 hPa 0,0 l/m 2 min 0 min 3,7 UV-I 683 W/m 14,2 km/h (3 Bft)
03.08.2014 11:40 23,1 C 24,4 C 76 % 1011,0 hPa 0,0 l/m 2 min 0 min 3,7 UV-I 682 W/m 14,2 km/h (3 Bft)
03.08.2014 11:42 23,2 C 24,4 C 76 % 1011,0 hPa 0,0 l/m 2 min 0 min 3,6 UV-I 655 W/m 7,1 km/h (2 Bft)
03.08.2014 11:44 23,3 C 25,0 C 77 % 1011,0 hPa 0,0 l/m 2 min 0 min 3,7 UV-I 664 W/m 14,2 km/h (3 Bft)
03.08.2014 11:46 23,5 C 25,0 C 75 % 1011,1 hPa 0,0 l/m 2 min 0 min 3,6 UV-I 640 W/m 21,3 km/h (4 Bft)
03.08.2014 11:48 23,3 C 25,0 C 75 % 1011,0 hPa 0,0 l/m 2 min 0 min 3,4 UV-I 577 W/m 21,3 km/h (4 Bft)
03.08.2014 11:50 23,2 C 25,0 C 77 % 1011,1 hPa 0,0 l/m 2 min 0 min 3,4 UV-I 595 W/m 21,3 km/h (4 Bft)
03.08.2014 11:52 23,2 C 24,4 C 75 % 1011,0 hPa 0,0 l/m 2 min 0 min 3,4 UV-I 596 W/m 10,7 km/h (2 Bft)
03.08.2014 11:54 23,2 C 24,4 C 76 % 1011,0 hPa 0,0 l/m 2 min 0 min 3,2 UV-I 539 W/m 10,7 km/h (2 Bft)
03.08.2014 11:56 23,3 C 24,4 C 78 % 1011,0 hPa 0,0 l/m 2 min 0 min 3,0 UV-I 488 W/m 7,1 km/h (2 Bft)
03.08.2014 11:58 23,4 C 23,9 C 75 % 1011,0 hPa 0,0 l/m 2 min 0 min 2,9 UV-I 475 W/m 3,5 km/h (1 Bft)
03.08.2014 12:00 23,3 C 23,9 C 75 % 1011,0 hPa 0,0 l/m 2 min 0 min 3,0 UV-I 507 W/m 3,5 km/h (1 Bft)
03.08.2014 12:02 23,2 C 23,9 C 75 % 1010,9 hPa 0,0 l/m 2 min 0 min 3,0 UV-I 465 W/m 17,7 km/h (3 Bft)
03.08.2014 12:05 23,2 C 23,9 C 77 % 1010,9 hPa 0,0 l/m 2 min 0 min 3,1 UV-I 490 W/m 14,2 km/h (3 Bft)
03.08.2014 12:06 23,3 C 23,9 C 78 % 1010,9 hPa 0,0 l/m 1 min 0 min 3,1 UV-I 518 W/m 3,5 km/h (1 Bft)
03.08.2014 12:08 23,5 C 24,4 C 76 % 1011,0 hPa 0,0 l/m 2 min 0 min 3,2 UV-I 514 W/m 14,2 km/h (3 Bft)
03.08.2014 12:10 23,6 C 24,4 C 75 % 1010,9 hPa 0,0 l/m 2 min 0 min 3,2 UV-I 536 W/m 3,5 km/h (1 Bft)
03.08.2014 12:12 23,8 C 24,4 C 76 % 1011,0 hPa 0,0 l/m 2 min 0 min 3,2 UV-I 541 W/m 24,7 km/h (4 Bft)
03.08.2014 12:14 23,8 C 24,4 C 75 % 1010,9 hPa 0,0 l/m 2 min 0 min 2,9 UV-I 476 W/m 17,7 km/h (3 Bft)
03.08.2014 12:16 23,7 C 24,4 C 74 % 1011,0 hPa 0,0 l/m 2 min 0 min 3,0 UV-I 490 W/m 21,3 km/h (4 Bft)
03.08.2014 12:18 23,7 C 24,4 C 74 % 1011,0 hPa 0,0 l/m 2 min 0 min 3,2 UV-I 512 W/m 17,7 km/h (3 Bft)
03.08.2014 12:20 23,7 C 24,4 C 74 % 1011,0 hPa 0,0 l/m 2 min 0 min 3,0 UV-I 476 W/m 10,7 km/h (2 Bft)
03.08.2014 12:22 23,7 C 24,4 C 73 % 1011,0 hPa 0,0 l/m 2 min 0 min 3,1 UV-I 456 W/m 10,7 km/h (2 Bft)
03.08.2014 12:24 23,6 C 23,9 C 75 % 1011,0 hPa 0,0 l/m 2 min 0 min 3,0 UV-I 409 W/m 10,7 km/h (2 Bft)
03.08.2014 12:26 23,6 C 23,9 C 73 % 1011,0 hPa 0,0 l/m 2 min 0 min 3,0 UV-I 431 W/m 14,2 km/h (3 Bft)
03.08.2014 12:28 23,6 C 24,4 C 76 % 1011,1 hPa 0,0 l/m 2 min 0 min 2,9 UV-I 462 W/m 14,2 km/h (3 Bft)
03.08.2014 12:30 23,6 C 23,9 C 74 % 1011,0 hPa 0,0 l/m 2 min 0 min 2,8 UV-I 439 W/m 17,7 km/h (3 Bft)
03.08.2014 12:32 23,5 C 23,9 C 72 % 1011,0 hPa 0,0 l/m 2 min 0 min 2,8 UV-I 425 W/m 21,3 km/h (4 Bft)
03.08.2014 12:34 23,5 C 23,3 C 74 % 1011,0 hPa 0,0 l/m 2 min 0 min 2,7 UV-I 391 W/m 17,7 km/h (3 Bft)
03.08.2014 12:36 23,5 C 23,9 C 74 % 1011,0 hPa 0,0 l/m 2 min 0 min 2,8 UV-I 416 W/m 14,2 km/h (3 Bft)
03.08.2014 12:38 23,4 C 23,9 C 72 % 1011,0 hPa 0,0 l/m 2 min 0 min 3,2 UV-I 492 W/m 10,7 km/h (2 Bft)
03.08.2014 12:40 23,6 C 23,9 C 74 % 1011,0 hPa 0,0 l/m 2 min 0 min 3,2 UV-I 497 W/m 14,2 km/h (3 Bft)
03.08.2014 12:42 23,7 C 23,9 C 73 % 1011,0 hPa 0,0 l/m 2 min 0 min 3,1 UV-I 465 W/m 14,2 km/h (3 Bft)
03.08.2014 12:44 23,7 C 23,9 C 74 % 1011,0 hPa 0,0 l/m 2 min 0 min 3,1 UV-I 463 W/m 17,7 km/h (3 Bft)
03.08.2014 12:46 23,7 C 23,9 C 72 % 1011,0 hPa 0,0 l/m 2 min 0 min 3,3 UV-I 504 W/m 14,2 km/h (3 Bft)
03.08.2014 12:48 23,6 C 23,9 C 72 % 1011,0 hPa 0,0 l/m 2 min 0 min 3,3 UV-I 498 W/m 14,2 km/h (3 Bft)
03.08.2014 12:50 23,5 C 23,9 C 73 % 1011,0 hPa 0,0 l/m 2 min 0 min 3,4 UV-I 525 W/m 0,0 km/h (0 Bft)
03.08.2014 12:52 23,7 C 24,4 C 75 % 1011,0 hPa 0,0 l/m 2 min 0 min 3,3 UV-I 548 W/m 3,5 km/h (1 Bft)
03.08.2014 12:54 23,9 C 24,4 C 76 % 1011,0 hPa 0,0 l/m 2 min 0 min 3,2 UV-I 606 W/m 0,0 km/h (0 Bft)
03.08.2014 12:56 24,1 C 25,0 C 74 % 1011,0 hPa 0,0 l/m 2 min 0 min 3,4 UV-I 550 W/m 14,2 km/h (3 Bft)
03.08.2014 12:58 24,2 C 24,4 C 72 % 1011,0 hPa 0,0 l/m 2 min 0 min 3,4 UV-I 537 W/m 14,2 km/h (3 Bft)
03.08.2014 13:00 24,1 C 24,4 C 73 % 1011,0 hPa 0,0 l/m 2 min 0 min 3,4 UV-I 526 W/m 21,3 km/h (4 Bft)
03.08.2014 13:02 24,1 C 24,4 C 72 % 1011,0 hPa 0,0 l/m 2 min 0 min 3,4 UV-I 511 W/m 7,1 km/h (2 Bft)
03.08.2014 13:04 24,2 C 25,0 C 74 % 1011,0 hPa 0,0 l/m 2 min 0 min 3,6 UV-I 572 W/m 14,2 km/h (3 Bft)
03.08.2014 13:06 24,2 C 24,4 C 71 % 1011,0 hPa 0,0 l/m 2 min 0 min 3,7 UV-I 578 W/m 17,7 km/h (3 Bft)
03.08.2014 13:08 24,1 C 24,4 C 69 % 1011,0 hPa 0,0 l/m 2 min 0 min 3,8 UV-I 601 W/m 17,7 km/h (3 Bft)
03.08.2014 13:10 24,2 C 24,4 C 73 % 1011,0 hPa 0,0 l/m 2 min 0 min 3,6 UV-I 574 W/m 21,3 km/h (4 Bft)
03.08.2014 13:12 24,2 C 24,4 C 69 % 1011,0 hPa 0,0 l/m 2 min 0 min 3,5 UV-I 533 W/m 17,7 km/h (3 Bft)
03.08.2014 13:14 24,2 C 24,4 C 72 % 1011,1 hPa 0,0 l/m 2 min 0 min 3,4 UV-I 526 W/m 17,7 km/h (3 Bft)
03.08.2014 13:16 24,1 C 24,4 C 72 % 1011,0 hPa 0,0 l/m 2 min 0 min 3,5 UV-I 551 W/m 17,7 km/h (3 Bft)
03.08.2014 13:18 24,3 C 24,4 C 74 % 1011,1 hPa 0,0 l/m 2 min 0 min 3,5 UV-I 567 W/m 14,2 km/h (3 Bft)
03.08.2014 13:20 24,2 C 24,4 C 70 % 1011,1 hPa 0,0 l/m 2 min 0 min 3,5 UV-I 554 W/m 21,3 km/h (4 Bft)
03.08.2014 13:22 24,2 C 24,4 C 71 % 1011,1 hPa 0,0 l/m 2 min 0 min 3,4 UV-I 520 W/m 10,7 km/h (2 Bft)
03.08.2014 13:24 24,0 C 24,4 C 71 % 1011,1 hPa 0,0 l/m 2 min 0 min 3,5 UV-I 538 W/m 14,2 km/h (3 Bft)
03.08.2014 13:26 24,2 C 24,4 C 74 % 1011,1 hPa 0,0 l/m 2 min 0 min 3,5 UV-I 552 W/m 10,7 km/h (2 Bft)
03.08.2014 13:28 24,4 C 24,4 C 74 % 1011,1 hPa 0,0 l/m 2 min 0 min 3,7 UV-I 587 W/m 10,7 km/h (2 Bft)
03.08.2014 13:30 24,4 C 24,4 C 71 % 1011,1 hPa 0,0 l/m 2 min 0 min 3,7 UV-I 591 W/m 24,7 km/h (4 Bft)
03.08.2014 13:32 24,1 C 23,9 C 70 % 1011,0 hPa 0,0 l/m 2 min 0 min 3,4 UV-I 542 W/m 17,7 km/h (3 Bft)
03.08.2014 13:34 23,8 C 23,9 C 71 % 1011,0 hPa 0,0 l/m 2 min 0 min 3,3 UV-I 505 W/m 14,2 km/h (3 Bft)
03.08.2014 13:36 23,7 C 23,9 C 72 % 1011,0 hPa 0,0 l/m 2 min 0 min 3,3 UV-I 505 W/m 10,7 km/h (2 Bft)
03.08.2014 13:38 23,6 C 23,9 C 72 % 1010,9 hPa 0,0 l/m 2 min 0 min 3,1 UV-I 486 W/m 3,5 km/h (1 Bft)
03.08.2014 13:40 23,6 C 23,9 C 71 % 1010,9 hPa 0,0 l/m 2 min 0 min 3,2 UV-I 495 W/m 21,3 km/h (4 Bft)
03.08.2014 13:42 23,7 C 23,9 C 72 % 1010,9 hPa 0,0 l/m 2 min 0 min 3,1 UV-I 467 W/m 14,2 km/h (3 Bft)
03.08.2014 13:44 23,7 C 23,9 C 72 % 1010,9 hPa 0,0 l/m 2 min 0 min 3,1 UV-I 458 W/m 7,1 km/h (2 Bft)
03.08.2014 13:46 23,7 C 23,9 C 72 % 1010,9 hPa 0,0 l/m 2 min 0 min 3,0 UV-I 448 W/m 17,7 km/h (3 Bft)
03.08.2014 13:48 23,8 C 23,9 C 74 % 1010,9 hPa 0,0 l/m 2 min 0 min 3,3 UV-I 508 W/m 24,7 km/h (4 Bft)
03.08.2014 13:50 24,1 C 23,9 C 76 % 1010,9 hPa 0,0 l/m 2 min 0 min 3,4 UV-I 510 W/m 17,7 km/h (3 Bft)
03.08.2014 13:52 24,3 C 24,4 C 76 % 1010,9 hPa 0,0 l/m 2 min 0 min 3,6 UV-I 580 W/m 14,2 km/h (3 Bft)
03.08.2014 13:54 24,4 C 24,4 C 73 % 1010,9 hPa 0,0 l/m 2 min 0 min 3,8 UV-I 609 W/m 7,1 km/h (2 Bft)
03.08.2014 13:56 24,5 C 25,0 C 74 % 1010,9 hPa 0,0 l/m 2 min 0 min 3,7 UV-I 584 W/m 14,2 km/h (3 Bft)
03.08.2014 13:58 24,4 C 24,4 C 71 % 1010,9 hPa 0,0 l/m 2 min 0 min 3,5 UV-I 555 W/m 10,7 km/h (2 Bft)
03.08.2014 14:00 24,3 C 24,4 C 72 % 1010,9 hPa 0,0 l/m 2 min 0 min 3,2 UV-I 486 W/m 10,7 km/h (2 Bft)
03.08.2014 14:02 24,2 C 24,4 C 72 % 1010,9 hPa 0,0 l/m 2 min 0 min 3,1 UV-I 464 W/m 3,5 km/h (1 Bft)
03.08.2014 14:04 24,1 C 24,4 C 72 % 1010,9 hPa 0,0 l/m 2 min 0 min 3,2 UV-I 503 W/m 17,7 km/h (3 Bft)
03.08.2014 14:06 24,0 C 24,4 C 73 % 1010,9 hPa 0,0 l/m 2 min 0 min 3,3 UV-I 520 W/m 14,2 km/h (3 Bft)
03.08.2014 14:08 24,0 C 24,4 C 72 % 1010,9 hPa 0,0 l/m 2 min 0 min 3,3 UV-I 538 W/m 21,3 km/h (4 Bft)
03.08.2014 14:10 23,8 C 23,9 C 73 % 1010,9 hPa 0,0 l/m 2 min 0 min 3,2 UV-I 518 W/m 10,7 km/h (2 Bft)
03.08.2014 14:12 23,9 C 24,4 C 74 % 1010,9 hPa 0,0 l/m 2 min 0 min 3,2 UV-I 531 W/m 21,3 km/h (4 Bft)
03.08.2014 14:14 24,0 C 24,4 C 72 % 1010,9 hPa 0,0 l/m 2 min 0 min 3,3 UV-I 563 W/m 21,3 km/h (4 Bft)
03.08.2014 14:16 24,0 C 24,4 C 72 % 1010,9 hPa 0,0 l/m 2 min 0 min 3,4 UV-I 510 W/m 17,7 km/h (3 Bft)
03.08.2014 14:18 24,2 C 24,4 C 71 % 1010,9 hPa 0,0 l/m 2 min 0 min 3,6 UV-I 642 W/m 17,7 km/h (3 Bft)
03.08.2014 14:20 24,3 C 24,4 C 71 % 1010,9 hPa 0,0 l/m 2 min 0 min 3,7 UV-I 631 W/m 24,7 km/h (4 Bft)
03.08.2014 14:22 24,3 C 24,4 C 70 % 1010,9 hPa 0,0 l/m 2 min 0 min 3,6 UV-I 603 W/m 21,3 km/h (4 Bft)
03.08.2014 14:24 24,2 C 24,4 C 70 % 1010,9 hPa 0,0 l/m 2 min 0 min 3,2 UV-I 546 W/m 21,3 km/h (4 Bft)
03.08.2014 14:26 24,1 C 23,9 C 70 % 1010,9 hPa 0,0 l/m 2 min 0 min 2,7 UV-I 401 W/m 17,7 km/h (3 Bft)
03.08.2014 14:28 24,0 C 23,9 C 71 % 1010,9 hPa 0,0 l/m 2 min 0 min 2,9 UV-I 397 W/m 14,2 km/h (3 Bft)
03.08.2014 14:30 23,9 C 23,9 C 71 % 1010,9 hPa 0,0 l/m 2 min 0 min 3,6 UV-I 563 W/m 17,7 km/h (3 Bft)
03.08.2014 14:32 24,1 C 24,4 C 73 % 1010,8 hPa 0,0 l/m 2 min 0 min 3,6 UV-I 603 W/m 17,7 km/h (3 Bft)
03.08.2014 14:34 24,3 C 24,4 C 72 % 1010,8 hPa 0,0 l/m 2 min 0 min 3,6 UV-I 595 W/m 14,2 km/h (3 Bft)
03.08.2014 14:36 24,6 C 24,4 C 76 % 1010,8 hPa 0,0 l/m 2 min 0 min 3,7 UV-I 604 W/m 17,7 km/h (3 Bft)
03.08.2014 14:38 24,9 C 25,0 C 72 % 1010,8 hPa 0,0 l/m 2 min 0 min 3,8 UV-I 633 W/m 7,1 km/h (2 Bft)
03.08.2014 14:40 24,9 C 25,0 C 70 % 1010,9 hPa 0,0 l/m 2 min 0 min 3,7 UV-I 634 W/m 10,7 km/h (2 Bft)
03.08.2014 14:42 25,1 C 25,0 C 69 % 1010,8 hPa 0,0 l/m 2 min 0 min 3,5 UV-I 597 W/m 21,3 km/h (4 Bft)
03.08.2014 14:44 24,8 C 24,4 C 69 % 1010,8 hPa 0,0 l/m 2 min 0 min 2,8 UV-I 484 W/m 17,7 km/h (3 Bft)
03.08.2014 14:46 24,7 C 24,4 C 71 % 1010,8 hPa 0,0 l/m 2 min 0 min 3,0 UV-I 396 W/m 21,3 km/h (4 Bft)
03.08.2014 14:48 24,4 C 24,4 C 69 % 1010,8 hPa 0,0 l/m 2 min 0 min 3,0 UV-I 417 W/m 17,7 km/h (3 Bft)
03.08.2014 14:50 24,3 C 23,9 C 71 % 1010,8 hPa 0,0 l/m 0 min 0 min 2,7 UV-I 371 W/m 14,2 km/h (3 Bft)
03.08.2014 14:52 24,2 C 23,9 C 71 % 1010,8 hPa 0,0 l/m 0 min 0 min 2,6 UV-I 365 W/m 21,3 km/h (4 Bft)
03.08.2014 14:54 24,1 C 23,9 C 70 % 1010,8 hPa 0,0 l/m 2 min 0 min 3,2 UV-I 408 W/m 21,3 km/h (4 Bft)
03.08.2014 14:56 24,0 C 23,9 C 72 % 1010,8 hPa 0,0 l/m 2 min 0 min 3,4 UV-I 574 W/m 21,3 km/h (4 Bft)
03.08.2014 14:58 24,1 C 23,9 C 72 % 1010,7 hPa 0,0 l/m 2 min 0 min 3,3 UV-I 573 W/m 24,7 km/h (4 Bft)
03.08.2014 15:00 24,1 C 23,9 C 72 % 1010,7 hPa 0,0 l/m 2 min 0 min 3,1 UV-I 526 W/m 24,7 km/h (4 Bft)
03.08.2014 15:02 24,1 C 23,9 C 71 % 1010,7 hPa 0,0 l/m 2 min 0 min 2,9 UV-I 448 W/m 24,7 km/h (4 Bft)
03.08.2014 15:04 24,1 C 23,9 C 70 % 1010,7 hPa 0,0 l/m 2 min 0 min 2,6 UV-I 466 W/m 7,1 km/h (2 Bft)
03.08.2014 15:06 24,0 C 23,9 C 72 % 1010,8 hPa 0,0 l/m 0 min 0 min 2,3 UV-I 309 W/m 10,7 km/h (2 Bft)
03.08.2014 15:08 24,0 C 23,9 C 72 % 1010,8 hPa 0,0 l/m 0 min 0 min 2,2 UV-I 305 W/m 14,2 km/h (3 Bft)
03.08.2014 15:10 23,9 C 23,9 C 72 % 1010,7 hPa 0,0 l/m 0 min 0 min 2,2 UV-I 306 W/m 17,7 km/h (3 Bft)
03.08.2014 15:12 23,9 C 23,9 C 71 % 1010,7 hPa 0,0 l/m 0 min 0 min 2,2 UV-I 326 W/m 21,3 km/h (4 Bft)
03.08.2014 15:14 23,9 C 23,3 C 71 % 1010,8 hPa 0,0 l/m 0 min 0 min 2,4 UV-I 335 W/m 17,7 km/h (3 Bft)
03.08.2014 15:16 23,8 C 23,9 C 71 % 1010,8 hPa 0,0 l/m 2 min 0 min 2,5 UV-I 426 W/m 10,7 km/h (2 Bft)
03.08.2014 15:18 23,8 C 23,9 C 73 % 1010,7 hPa 0,0 l/m 2 min 0 min 2,4 UV-I 470 W/m 3,5 km/h (1 Bft)
03.08.2014 15:20 24,0 C 23,9 C 72 % 1010,7 hPa 0,0 l/m 0 min 0 min 2,2 UV-I 325 W/m 0,0 km/h (0 Bft)
03.08.2014 15:22 24,2 C 24,4 C 72 % 1010,8 hPa 0,0 l/m 0 min 0 min 2,3 UV-I 339 W/m 0,0 km/h (0 Bft)
03.08.2014 15:24 24,2 C 24,4 C 69 % 1010,8 hPa 0,0 l/m 2 min 0 min 2,7 UV-I 445 W/m 0,0 km/h (0 Bft)
03.08.2014 15:26 24,2 C 24,4 C 69 % 1010,8 hPa 0,0 l/m 2 min 0 min 2,8 UV-I 502 W/m 3,5 km/h (1 Bft)
03.08.2014 15:28 24,2 C 24,4 C 69 % 1010,8 hPa 0,0 l/m 2 min 0 min 2,9 UV-I 502 W/m 14,2 km/h (3 Bft)
03.08.2014 15:30 24,4 C 24,4 C 69 % 1010,8 hPa 0,0 l/m 2 min 0 min 2,9 UV-I 515 W/m 14,2 km/h (3 Bft)
03.08.2014 15:32 24,3 C 24,4 C 68 % 1010,8 hPa 0,0 l/m 2 min 0 min 2,8 UV-I 470 W/m 10,7 km/h (2 Bft)
03.08.2014 15:34 24,4 C 24,4 C 70 % 1010,8 hPa 0,0 l/m 2 min 0 min 2,8 UV-I 459 W/m 0,0 km/h (0 Bft)
03.08.2014 15:36 24,5 C 24,4 C 70 % 1010,8 hPa 0,0 l/m 2 min 0 min 2,9 UV-I 507 W/m 14,2 km/h (3 Bft)
03.08.2014 15:38 24,4 C 24,4 C 67 % 1010,8 hPa 0,0 l/m 2 min 0 min 2,9 UV-I 521 W/m 14,2 km/h (3 Bft)
03.08.2014 15:40 24,3 C 23,9 C 69 % 1010,8 hPa 0,0 l/m 2 min 0 min 2,8 UV-I 508 W/m 10,7 km/h (2 Bft)
03.08.2014 15:42 24,2 C 24,4 C 69 % 1010,8 hPa 0,0 l/m 2 min 0 min 2,8 UV-I 502 W/m 3,5 km/h (1 Bft)
03.08.2014 15:44 24,3 C 24,4 C 70 % 1010,8 hPa 0,0 l/m 2 min 0 min 2,6 UV-I 478 W/m 14,2 km/h (3 Bft)
03.08.2014 15:46 24,6 C 24,4 C 70 % 1010,8 hPa 0,0 l/m 2 min 0 min 2,6 UV-I 462 W/m 17,7 km/h (3 Bft)
03.08.2014 15:48 24,5 C 24,4 C 69 % 1010,8 hPa 0,0 l/m 2 min 0 min 2,7 UV-I 446 W/m 3,5 km/h (1 Bft)
03.08.2014 15:50 24,4 C 24,4 C 70 % 1010,8 hPa 0,0 l/m 2 min 0 min 2,5 UV-I 455 W/m 3,5 km/h (1 Bft)
03.08.2014 15:52 24,4 C 24,4 C 69 % 1010,8 hPa 0,0 l/m 2 min 0 min 2,6 UV-I 486 W/m 24,7 km/h (4 Bft)
03.08.2014 15:54 24,6 C 24,4 C 71 % 1010,8 hPa 0,0 l/m 2 min 0 min 2,6 UV-I 489 W/m 17,7 km/h (3 Bft)
03.08.2014 15:56 24,6 C 24,4 C 71 % 1010,7 hPa 0,0 l/m 2 min 0 min 2,5 UV-I 481 W/m 14,2 km/h (3 Bft)
03.08.2014 15:58 24,6 C 24,4 C 68 % 1010,8 hPa 0,0 l/m 2 min 0 min 2,6 UV-I 497 W/m 17,7 km/h (3 Bft)
03.08.2014 16:00 24,5 C 24,4 C 70 % 1010,8 hPa 0,0 l/m 2 min 0 min 2,6 UV-I 506 W/m 10,7 km/h (2 Bft)
03.08.2014 16:02 24,5 C 24,4 C 68 % 1010,8 hPa 0,0 l/m 2 min 0 min 2,5 UV-I 484 W/m 24,7 km/h (4 Bft)
03.08.2014 16:04 24,6 C 24,4 C 68 % 1010,7 hPa 0,0 l/m 2 min 0 min 2,4 UV-I 476 W/m 14,2 km/h (3 Bft)
03.08.2014 16:06 24,8 C 25,0 C 73 % 1010,8 hPa 0,0 l/m 2 min 0 min 2,3 UV-I 437 W/m 10,7 km/h (2 Bft)
03.08.2014 16:08 24,9 C 25,0 C 70 % 1010,8 hPa 0,0 l/m 2 min 0 min 2,1 UV-I 397 W/m 10,7 km/h (2 Bft)
03.08.2014 16:10 25,0 C 25,0 C 68 % 1010,7 hPa 0,0 l/m 2 min 0 min 2,0 UV-I 375 W/m 10,7 km/h (2 Bft)
03.08.2014 16:12 24,9 C 24,4 C 66 % 1010,7 hPa 0,0 l/m 2 min 0 min 2,0 UV-I 395 W/m 17,7 km/h (3 Bft)
03.08.2014 16:14 24,7 C 24,4 C 68 % 1010,6 hPa 0,0 l/m 2 min 0 min 2,0 UV-I 408 W/m 17,7 km/h (3 Bft)
03.08.2014 16:16 24,6 C 24,4 C 66 % 1010,6 hPa 0,0 l/m 2 min 0 min 1,9 UV-I 390 W/m 17,7 km/h (3 Bft)
03.08.2014 16:18 24,6 C 24,4 C 68 % 1010,6 hPa 0,0 l/m 2 min 0 min 1,8 UV-I 367 W/m 14,2 km/h (3 Bft)
03.08.2014 16:20 24,6 C 24,4 C 68 % 1010,6 hPa 0,0 l/m 2 min 0 min 1,8 UV-I 356 W/m 21,3 km/h (4 Bft)
03.08.2014 16:22 24,7 C 24,4 C 69 % 1010,6 hPa 0,0 l/m 2 min 0 min 1,8 UV-I 362 W/m 21,3 km/h (4 Bft)
03.08.2014 16:24 24,6 C 25,0 C 68 % 1010,6 hPa 0,0 l/m 2 min 0 min 1,8 UV-I 374 W/m 14,2 km/h (3 Bft)
03.08.2014 16:26 24,5 C 24,4 C 69 % 1010,6 hPa 0,0 l/m 2 min 0 min 1,8 UV-I 382 W/m 10,7 km/h (2 Bft)
03.08.2014 16:28 24,4 C 24,4 C 69 % 1010,7 hPa 0,0 l/m 2 min 0 min 1,8 UV-I 381 W/m 17,7 km/h (3 Bft)
03.08.2014 16:30 24,3 C 24,4 C 69 % 1010,7 hPa 0,0 l/m 2 min 0 min 1,8 UV-I 388 W/m 14,2 km/h (3 Bft)
03.08.2014 16:32 24,2 C 24,4 C 69 % 1010,7 hPa 0,0 l/m 2 min 0 min 1,7 UV-I 376 W/m 17,7 km/h (3 Bft)
03.08.2014 16:34 24,1 C 24,4 C 69 % 1010,7 hPa 0,0 l/m 2 min 0 min 1,6 UV-I 358 W/m 17,7 km/h (3 Bft)
03.08.2014 16:36 24,2 C 24,4 C 69 % 1010,8 hPa 0,0 l/m 2 min 0 min 1,5 UV-I 325 W/m 0,0 km/h (0 Bft)
03.08.2014 16:38 24,2 C 24,4 C 69 % 1010,8 hPa 0,0 l/m 2 min 0 min 1,5 UV-I 327 W/m 3,5 km/h (1 Bft)
03.08.2014 16:40 24,2 C 24,4 C 70 % 1010,8 hPa 0,0 l/m 2 min 0 min 1,4 UV-I 322 W/m 17,7 km/h (3 Bft)
03.08.2014 16:42 24,4 C 24,4 C 69 % 1010,8 hPa 0,0 l/m 0 min 0 min 1,4 UV-I 315 W/m 17,7 km/h (3 Bft)
03.08.2014 16:44 24,3 C 23,9 C 67 % 1010,8 hPa 0,0 l/m 0 min 0 min 1,3 UV-I 312 W/m 17,7 km/h (3 Bft)
03.08.2014 16:46 24,3 C 23,9 C 68 % 1010,8 hPa 0,0 l/m 2 min 0 min 1,3 UV-I 317 W/m 10,7 km/h (2 Bft)
03.08.2014 16:48 24,3 C 23,9 C 68 % 1010,8 hPa 0,0 l/m 2 min 0 min 1,2 UV-I 317 W/m 0,0 km/h (0 Bft)
03.08.2014 16:50 24,3 C 23,9 C 68 % 1010,8 hPa 0,0 l/m 0 min 0 min 1,1 UV-I 294 W/m 0,0 km/h (0 Bft)
03.08.2014 16:52 24,2 C 23,9 C 68 % 1010,8 hPa 0,0 l/m 0 min 0 min 1,1 UV-I 293 W/m 0,0 km/h (0 Bft)
03.08.2014 16:54 24,3 C 23,9 C 67 % 1010,7 hPa 0,0 l/m 2 min 0 min 1,1 UV-I 306 W/m 0,0 km/h (0 Bft)
03.08.2014 16:56 24,3 C 24,4 C 68 % 1010,8 hPa 0,0 l/m 0 min 0 min 1,1 UV-I 297 W/m 0,0 km/h (0 Bft)
03.08.2014 16:58 24,5 C 24,4 C 71 % 1010,7 hPa 0,0 l/m 2 min 0 min 1,1 UV-I 308 W/m 0,0 km/h (0 Bft)
03.08.2014 17:00 24,7 C 24,4 C 71 % 1010,7 hPa 0,0 l/m 2 min 0 min 1,2 UV-I 334 W/m 0,0 km/h (0 Bft)
03.08.2014 17:02 24,8 C 24,4 C 67 % 1010,6 hPa 0,0 l/m 2 min 0 min 1,2 UV-I 319 W/m 10,7 km/h (2 Bft)
03.08.2014 17:04 24,7 C 24,4 C 67 % 1010,6 hPa 0,0 l/m 2 min 0 min 1,3 UV-I 330 W/m 7,1 km/h (2 Bft)
03.08.2014 17:06 24,5 C 24,4 C 66 % 1010,7 hPa 0,0 l/m 0 min 0 min 1,2 UV-I 292 W/m 3,5 km/h (1 Bft)
03.08.2014 17:08 24,4 C 23,9 C 66 % 1010,7 hPa 0,0 l/m 0 min 0 min 1,1 UV-I 264 W/m 0,0 km/h (0 Bft)
03.08.2014 17:10 24,3 C 23,9 C 68 % 1010,7 hPa 0,0 l/m 0 min 0 min 1,1 UV-I 251 W/m 0,0 km/h (0 Bft)
03.08.2014 17:12 24,4 C 23,9 C 70 % 1010,7 hPa 0,0 l/m 0 min 0 min 1,0 UV-I 247 W/m 0,0 km/h (0 Bft)
03.08.2014 17:14 24,4 C 23,9 C 69 % 1010,6 hPa 0,0 l/m 0 min 0 min 1,1 UV-I 261 W/m 3,5 km/h (1 Bft)
03.08.2014 17:16 24,4 C 23,9 C 69 % 1010,6 hPa 0,0 l/m 2 min 0 min 1,1 UV-I 302 W/m 14,2 km/h (3 Bft)
03.08.2014 17:18 24,3 C 23,9 C 68 % 1010,6 hPa 0,0 l/m 2 min 0 min 1,1 UV-I 324 W/m 21,3 km/h (4 Bft)
03.08.2014 17:20 24,4 C 23,9 C 69 % 1010,5 hPa 0,0 l/m 2 min 0 min 1,1 UV-I 309 W/m 14,2 km/h (3 Bft)
03.08.2014 17:22 24,5 C 23,9 C 69 % 1010,4 hPa 0,0 l/m 2 min 0 min 1,1 UV-I 321 W/m 14,2 km/h (3 Bft)
03.08.2014 17:24 24,6 C 23,9 C 69 % 1010,4 hPa 0,0 l/m 0 min 0 min 1,0 UV-I 267 W/m 21,3 km/h (4 Bft)
03.08.2014 17:26 24,7 C 23,9 C 71 % 1010,5 hPa 0,0 l/m 2 min 0 min 1,0 UV-I 288 W/m 17,7 km/h (3 Bft)
03.08.2014 17:28 24,8 C 24,4 C 70 % 1010,5 hPa 0,0 l/m 2 min 0 min 1,0 UV-I 289 W/m 17,7 km/h (3 Bft)
03.08.2014 17:30 24,9 C 24,4 C 67 % 1010,5 hPa 0,0 l/m 2 min 0 min 1,1 UV-I 417 W/m 10,7 km/h (2 Bft)
03.08.2014 17:32 25,1 C 24,4 C 67 % 1010,5 hPa 0,0 l/m 2 min 0 min 1,1 UV-I 583 W/m 0,0 km/h (0 Bft)
03.08.2014 17:34 25,1 C 24,4 C 68 % 1010,5 hPa 0,0 l/m 2 min 0 min 1,1 UV-I 587 W/m 24,7 km/h (4 Bft)
03.08.2014 17:36 25,0 C 24,4 C 66 % 1010,5 hPa 0,0 l/m 2 min 0 min 1,1 UV-I 534 W/m 21,3 km/h (4 Bft)
03.08.2014 17:38 24,8 C 24,4 C 65 % 1010,5 hPa 0,0 l/m 2 min 0 min 1,1 UV-I 542 W/m 17,7 km/h (3 Bft)
03.08.2014 17:40 24,7 C 24,4 C 66 % 1010,6 hPa 0,0 l/m 2 min 0 min 1,1 UV-I 536 W/m 17,7 km/h (3 Bft)
03.08.2014 17:42 24,6 C 23,9 C 66 % 1010,5 hPa 0,0 l/m 2 min 0 min 1,0 UV-I 518 W/m 21,3 km/h (4 Bft)
03.08.2014 17:44 24,5 C 23,9 C 67 % 1010,5 hPa 0,0 l/m 2 min 0 min 1,0 UV-I 409 W/m 17,7 km/h (3 Bft)
03.08.2014 17:46 24,4 C 23,9 C 66 % 1010,5 hPa 0,0 l/m 0 min 0 min 0,9 UV-I 214 W/m 0,0 km/h (0 Bft)
03.08.2014 17:48 24,3 C 23,9 C 66 % 1010,4 hPa 0,0 l/m 0 min 0 min 0,8 UV-I 218 W/m 0,0 km/h (0 Bft)
03.08.2014 17:50 24,4 C 23,9 C 69 % 1010,5 hPa 0,0 l/m 2 min 0 min 0,8 UV-I 251 W/m 0,0 km/h (0 Bft)
03.08.2014 17:52 24,5 C 23,9 C 66 % 1010,4 hPa 0,0 l/m 2 min 0 min 0,7 UV-I 265 W/m 14,2 km/h (3 Bft)
03.08.2014 17:54 24,6 C 23,9 C 67 % 1010,3 hPa 0,0 l/m 2 min 0 min 0,7 UV-I 359 W/m 14,2 km/h (3 Bft)
03.08.2014 17:56 24,7 C 23,9 C 67 % 1010,4 hPa 0,0 l/m 0 min 0 min 0,6 UV-I 188 W/m 10,7 km/h (2 Bft)
03.08.2014 17:58 24,8 C 23,9 C 67 % 1010,5 hPa 0,0 l/m 0 min 0 min 0,6 UV-I 189 W/m 14,2 km/h (3 Bft)
03.08.2014 18:00 24,8 C 23,9 C 65 % 1010,6 hPa 0,0 l/m 0 min 0 min 0,6 UV-I 209 W/m 14,2 km/h (3 Bft)
03.08.2014 18:02 24,8 C 23,9 C 65 % 1010,5 hPa 0,0 l/m 2 min 0 min 0,6 UV-I 323 W/m 3,5 km/h (1 Bft)
03.08.2014 18:05 24,9 C 24,4 C 65 % 1010,4 hPa 0,0 l/m 2 min 0 min 0,7 UV-I 503 W/m 3,5 km/h (1 Bft)
03.08.2014 18:08 25,1 C 24,4 C 66 % 1010,4 hPa 0,0 l/m 2 min 0 min 0,7 UV-I 469 W/m 10,7 km/h (2 Bft)
03.08.2014 18:10 25,2 C 24,4 C 67 % 1010,4 hPa 0,0 l/m 2 min 0 min 0,7 UV-I 425 W/m 17,7 km/h (3 Bft)
03.08.2014 18:12 25,3 C 24,4 C 64 % 1010,4 hPa 0,0 l/m 2 min 0 min 0,7 UV-I 495 W/m 17,7 km/h (3 Bft)
03.08.2014 18:14 25,2 C 24,4 C 66 % 1010,4 hPa 0,0 l/m 2 min 0 min 0,7 UV-I 435 W/m 0,0 km/h (0 Bft)
03.08.2014 18:16 25,2 C 24,4 C 69 % 1010,4 hPa 0,0 l/m 2 min 0 min 0,7 UV-I 298 W/m 0,0 km/h (0 Bft)
03.08.2014 18:18 25,2 C 24,4 C 66 % 1010,4 hPa 0,0 l/m 2 min 0 min 0,6 UV-I 334 W/m 0,0 km/h (0 Bft)
03.08.2014 18:20 25,1 C 24,4 C 65 % 1010,5 hPa 0,0 l/m 2 min 0 min 0,6 UV-I 318 W/m 21,3 km/h (4 Bft)
03.08.2014 18:22 25,1 C 23,9 C 68 % 1010,5 hPa 0,0 l/m 2 min 0 min 0,6 UV-I 370 W/m 21,3 km/h (4 Bft)
03.08.2014 18:24 25,1 C 23,9 C 67 % 1010,4 hPa 0,0 l/m 2 min 0 min 0,6 UV-I 369 W/m 10,7 km/h (2 Bft)
03.08.2014 18:26 25,1 C 23,9 C 64 % 1010,4 hPa 0,0 l/m 2 min 0 min 0,5 UV-I 358 W/m 17,7 km/h (3 Bft)
03.08.2014 18:28 25,0 C 23,9 C 64 % 1010,5 hPa 0,0 l/m 2 min 0 min 0,5 UV-I 374 W/m 17,7 km/h (3 Bft)
03.08.2014 18:30 24,8 C 23,9 C 65 % 1010,5 hPa 0,0 l/m 2 min 0 min 0,5 UV-I 382 W/m 21,3 km/h (4 Bft)
03.08.2014 18:32 24,8 C 23,3 C 65 % 1010,5 hPa 0,0 l/m 2 min 0 min 0,3 UV-I 372 W/m 21,3 km/h (4 Bft)
03.08.2014 18:34 24,8 C 23,3 C 65 % 1010,4 hPa 0,0 l/m 2 min 0 min 0,0 UV-I 362 W/m 17,7 km/h (3 Bft)
03.08.2014 18:36 24,7 C 23,3 C 65 % 1010,4 hPa 0,0 l/m 2 min 0 min 0,0 UV-I 357 W/m 21,3 km/h (4 Bft)
03.08.2014 18:38 24,6 C 23,3 C 64 % 1010,3 hPa 0,0 l/m 2 min 0 min 0,0 UV-I 353 W/m 3,5 km/h (1 Bft)
03.08.2014 18:40 24,7 C 23,3 C 66 % 1010,3 hPa 0,0 l/m 2 min 0 min 0,0 UV-I 346 W/m 3,5 km/h (1 Bft)
03.08.2014 18:42 24,7 C 23,3 C 66 % 1010,3 hPa 0,0 l/m 2 min 0 min 0,0 UV-I 337 W/m 14,2 km/h (3 Bft)
03.08.2014 18:44 24,8 C 23,3 C 66 % 1010,2 hPa 0,0 l/m 2 min 0 min 0,0 UV-I 329 W/m 3,5 km/h (1 Bft)
03.08.2014 18:46 24,8 C 23,3 C 65 % 1010,2 hPa 0,0 l/m 2 min 0 min 0,0 UV-I 319 W/m 10,7 km/h (2 Bft)
03.08.2014 18:48 24,9 C 23,3 C 66 % 1010,2 hPa 0,0 l/m 2 min 0 min 0,0 UV-I 309 W/m 14,2 km/h (3 Bft)
03.08.2014 18:50 24,9 C 23,3 C 66 % 1010,2 hPa 0,0 l/m 2 min 0 min 0,0 UV-I 298 W/m 0,0 km/h (0 Bft)
03.08.2014 18:52 25,1 C 23,3 C 66 % 1010,1 hPa 0,0 l/m 2 min 0 min 0,0 UV-I 287 W/m 10,7 km/h (2 Bft)
03.08.2014 18:54 25,1 C 23,3 C 65 % 1010,1 hPa 0,0 l/m 2 min 0 min 0,0 UV-I 278 W/m 14,2 km/h (3 Bft)
03.08.2014 18:56 25,1 C 23,3 C 65 % 1010,1 hPa 0,0 l/m 2 min 0 min 0,0 UV-I 267 W/m 14,2 km/h (3 Bft)
03.08.2014 18:58 24,9 C 23,3 C 64 % 1010,1 hPa 0,0 l/m 2 min 0 min 0,0 UV-I 258 W/m 0,0 km/h (0 Bft)
03.08.2014 19:00 24,9 C 23,3 C 66 % 1010,1 hPa 0,0 l/m 2 min 0 min 0,0 UV-I 249 W/m 24,7 km/h (4 Bft)
03.08.2014 19:02 25,0 C 23,3 C 65 % 1010,1 hPa 0,0 l/m 2 min 0 min 0,0 UV-I 242 W/m 14,2 km/h (3 Bft)
03.08.2014 19:04 25,1 C 23,3 C 64 % 1010,1 hPa 0,0 l/m 2 min 0 min 0,0 UV-I 236 W/m 10,7 km/h (2 Bft)
03.08.2014 19:06 25,0 C 22,8 C 64 % 1010,1 hPa 0,0 l/m 2 min 0 min 0,0 UV-I 231 W/m 17,7 km/h (3 Bft)
03.08.2014 19:08 24,9 C 22,8 C 64 % 1010,0 hPa 0,0 l/m 2 min 0 min 0,0 UV-I 227 W/m 14,2 km/h (3 Bft)
03.08.2014 19:10 24,9 C 22,8 C 65 % 1010,0 hPa 0,0 l/m 2 min 0 min 0,0 UV-I 218 W/m 17,7 km/h (3 Bft)
03.08.2014 19:12 24,9 C 22,8 C 65 % 1010,0 hPa 0,0 l/m 2 min 0 min 0,0 UV-I 214 W/m 21,3 km/h (4 Bft)
03.08.2014 19:14 25,0 C 22,8 C 65 % 1010,0 hPa 0,0 l/m 2 min 0 min 0,0 UV-I 207 W/m 17,7 km/h (3 Bft)
03.08.2014 19:16 25,0 C 22,8 C 65 % 1010,0 hPa 0,0 l/m 2 min 0 min 0,0 UV-I 199 W/m 14,2 km/h (3 Bft)
03.08.2014 19:18 25,0 C 22,8 C 65 % 1010,0 hPa 0,0 l/m 2 min 0 min 0,0 UV-I 191 W/m 17,7 km/h (3 Bft)
03.08.2014 19:20 25,0 C 22,8 C 65 % 1010,0 hPa 0,0 l/m 2 min 0 min 0,0 UV-I 183 W/m 17,7 km/h (3 Bft)
03.08.2014 19:22 25,0 C 22,8 C 65 % 1010,0 hPa 0,0 l/m 2 min 0 min 0,0 UV-I 177 W/m 17,7 km/h (3 Bft)
03.08.2014 19:24 25,0 C 22,8 C 65 % 1010,0 hPa 0,0 l/m 2 min 0 min 0,0 UV-I 173 W/m 14,2 km/h (3 Bft)
03.08.2014 19:26 25,0 C 22,8 C 67 % 1010,0 hPa 0,0 l/m 2 min 0 min 0,0 UV-I 173 W/m 24,7 km/h (4 Bft)
03.08.2014 19:28 24,9 C 22,8 C 66 % 1010,1 hPa 0,0 l/m 2 min 0 min 0,0 UV-I 178 W/m 24,7 km/h (4 Bft)
03.08.2014 19:30 24,8 C 22,8 C 65 % 1010,2 hPa 0,0 l/m 2 min 0 min 0,0 UV-I 184 W/m 14,2 km/h (3 Bft)
03.08.2014 19:32 24,8 C 22,8 C 66 % 1010,2 hPa 0,0 l/m 2 min 0 min 0,0 UV-I 183 W/m 7,1 km/h (2 Bft)
03.08.2014 19:34 24,8 C 22,8 C 68 % 1010,3 hPa 0,0 l/m 2 min 0 min 0,0 UV-I 172 W/m 14,2 km/h (3 Bft)
03.08.2014 19:36 24,8 C 22,8 C 66 % 1010,3 hPa 0,0 l/m 2 min 0 min 0,0 UV-I 150 W/m 10,7 km/h (2 Bft)
03.08.2014 19:38 24,8 C 22,8 C 66 % 1010,3 hPa 0,0 l/m 0 min 0 min 0,0 UV-I 72 W/m 14,2 km/h (3 Bft)
03.08.2014 19:40 24,7 C 22,8 C 67 % 1010,2 hPa 0,0 l/m 0 min 0 min 0,0 UV-I 51 W/m 7,1 km/h (2 Bft)
03.08.2014 19:42 24,6 C 22,8 C 66 % 1010,2 hPa 0,0 l/m 0 min 0 min 0,0 UV-I 44 W/m 10,7 km/h (2 Bft)
03.08.2014 19:44 24,5 C 22,8 C 67 % 1010,3 hPa 0,0 l/m 0 min 0 min 0,0 UV-I 36 W/m 7,1 km/h (2 Bft)
03.08.2014 19:46 24,4 C 22,2 C 69 % 1010,4 hPa 0,0 l/m 0 min 0 min 0,0 UV-I 33 W/m 3,5 km/h (1 Bft)
03.08.2014 19:48 24,3 C 22,2 C 69 % 1010,4 hPa 0,0 l/m 0 min 0 min 0,0 UV-I 32 W/m 14,2 km/h (3 Bft)
03.08.2014 19:50 24,2 C 22,2 C 68 % 1010,5 hPa 0,0 l/m 0 min 0 min 0,0 UV-I 28 W/m 10,7 km/h (2 Bft)
03.08.2014 19:52 24,2 C 22,2 C 67 % 1010,5 hPa 0,0 l/m 0 min 0 min 0,0 UV-I 24 W/m 10,7 km/h (2 Bft)
03.08.2014 19:54 24,3 C 22,2 C 69 % 1010,4 hPa 0,0 l/m 0 min 0 min 0,0 UV-I 19 W/m 0,0 km/h (0 Bft)
03.08.2014 19:56 24,2 C 22,2 C 70 % 1010,5 hPa 0,0 l/m 0 min 0 min 0,0 UV-I 16 W/m 10,7 km/h (2 Bft)
03.08.2014 19:58 24,2 C 22,2 C 69 % 1010,5 hPa 0,0 l/m 0 min 0 min 0,0 UV-I 12 W/m 14,2 km/h (3 Bft)
03.08.2014 20:00 24,1 C 22,2 C 69 % 1010,5 hPa 0,0 l/m 0 min 0 min 0,0 UV-I 11 W/m 10,7 km/h (2 Bft)
03.08.2014 20:04 24,1 C 22,2 C 71 % 1010,5 hPa 0,0 l/m 0 min 0 min 0,0 UV-I 8 W/m 10,7 km/h (2 Bft)
03.08.2014 20:06 24,0 C 22,2 C 70 % 1010,6 hPa 0,0 l/m 0 min 0 min 0,0 UV-I 7 W/m 0,0 km/h (0 Bft)
03.08.2014 20:08 23,9 C 21,7 C 71 % 1010,6 hPa 0,0 l/m 0 min 0 min 0,0 UV-I 6 W/m 0,0 km/h (0 Bft)
03.08.2014 20:10 23,9 C 21,7 C 71 % 1010,7 hPa 0,0 l/m 0 min 0 min 0,0 UV-I 5 W/m 3,5 km/h (1 Bft)
03.08.2014 20:12 23,8 C 21,7 C 72 % 1010,7 hPa 0,0 l/m 0 min 0 min 0,0 UV-I 5 W/m 0,0 km/h (0 Bft)
03.08.2014 20:14 23,7 C 21,7 C 74 % 1010,7 hPa 0,0 l/m 0 min 0 min 0,0 UV-I 5 W/m 10,7 km/h (2 Bft)
03.08.2014 20:16 23,6 C 21,1 C 73 % 1010,7 hPa 0,0 l/m 0 min 0 min 0,0 UV-I 5 W/m 31,7 km/h (5 Bft)
03.08.2014 20:18 23,2 C 21,1 C 70 % 1010,8 hPa 0,0 l/m 0 min 0 min 0,0 UV-I 2 W/m 38,9 km/h (6 Bft)
03.08.2014 20:20 22,8 C 20,6 C 70 % 1010,9 hPa 0,0 l/m 0 min 0 min 0,0 UV-I 0 W/m 24,7 km/h (4 Bft)
03.08.2014 20:22 22,4 C 20,6 C 71 % 1011,0 hPa 0,0 l/m 0 min 0 min 0,0 UV-I 0 W/m 24,7 km/h (4 Bft)
03.08.2014 20:24 22,1 C 20,6 C 70 % 1011,1 hPa 0,0 l/m 0 min 0 min 0,0 UV-I 0 W/m 38,9 km/h (6 Bft)
03.08.2014 20:26 21,8 C 20,0 C 70 % 1011,2 hPa 0,0 l/m 0 min 0 min 0,0 UV-I 0 W/m 31,7 km/h (5 Bft)
03.08.2014 20:28 21,6 C 20,0 C 71 % 1011,2 hPa 0,0 l/m 0 min 0 min 0,0 UV-I 0 W/m 31,7 km/h (5 Bft)
03.08.2014 20:32 21,2 C 19,4 C 73 % 1011,7 hPa 0,0 l/m 0 min 0 min 0,0 UV-I 0 W/m 24,7 km/h (4 Bft)
03.08.2014 20:34 21,0 C 19,4 C 74 % 1011,8 hPa 0,0 l/m 0 min 0 min 0,0 UV-I 0 W/m 63,7 km/h (8 Bft)
03.08.2014 20:36 20,7 C 19,4 C 74 % 1011,8 hPa 0,0 l/m 0 min 0 min 0,0 UV-I 0 W/m 35,4 km/h (5 Bft)
03.08.2014 20:38 20,5 C 18,9 C 76 % 1011,8 hPa 0,0 l/m 0 min 0 min 0,0 UV-I 0 W/m 42,4 km/h (6 Bft)
03.08.2014 20:40 20,3 C 18,9 C 77 % 1011,8 hPa 0,0 l/m 0 min 0 min 0,0 UV-I 0 W/m 53,0 km/h (7 Bft)
03.08.2014 20:42 20,2 C 18,9 C 78 % 1012,0 hPa 0,0 l/m 0 min 0 min 0,0 UV-I 0 W/m 49,5 km/h (6 Bft)
03.08.2014 20:44 20,1 C 18,9 C 79 % 1012,2 hPa 0,0 l/m 0 min 0 min 0,0 UV-I 0 W/m 56,5 km/h (7 Bft)
03.08.2014 20:46 19,9 C 17,8 C 81 % 1012,2 hPa 0,0 l/m 0 min 2 min 0,0 UV-I 0 W/m 53,0 km/h (7 Bft)
03.08.2014 20:48 19,6 C 16,7 C 82 % 1012,3 hPa 0,0 l/m 0 min 2 min 0,0 UV-I 0 W/m 42,4 km/h (6 Bft)
03.08.2014 20:50 19,3 C 16,7 C 83 % 1012,2 hPa 0,2 l/m 0 min 2 min 0,0 UV-I 0 W/m 31,7 km/h (5 Bft)
03.08.2014 20:52 19,1 C 16,7 C 86 % 1012,0 hPa 0,2 l/m 0 min 2 min 0,0 UV-I 0 W/m 70,6 km/h (8 Bft)
03.08.2014 20:54 18,7 C 16,1 C 86 % 1012,1 hPa 0,6 l/m 0 min 2 min 0,0 UV-I 0 W/m 67,1 km/h (8 Bft)
03.08.2014 20:56 18,2 C 15,0 C 86 % 1012,0 hPa 0,8 l/m 0 min 2 min 0,0 UV-I 0 W/m 77,7 km/h (9 Bft)
03.08.2014 21:00 17,1 C 14,4 C 87 % 1012,3 hPa 1,0 l/m 0 min 2 min 0,0 UV-I 0 W/m 70,6 km/h (8 Bft)
03.08.2014 21:02 16,7 C 13,9 C 87 % 1012,4 hPa 1,6 l/m 0 min 2 min 0,0 UV-I 0 W/m 53,0 km/h (7 Bft)
03.08.2014 21:04 16,3 C 13,9 C 88 % 1012,4 hPa 2,0 l/m 0 min 2 min 0,0 UV-I 0 W/m 42,4 km/h (6 Bft)
03.08.2014 21:06 16,2 C 13,9 C 89 % 1012,4 hPa 2,0 l/m 0 min 2 min 0,0 UV-I 0 W/m 24,7 km/h (4 Bft)
03.08.2014 21:08 16,2 C 13,9 C 91 % 1012,3 hPa 1,6 l/m 0 min 2 min 0,0 UV-I 0 W/m 17,7 km/h (3 Bft)
03.08.2014 21:10 16,1 C 13,9 C 91 % 1012,2 hPa 1,2 l/m 0 min 2 min 0,0 UV-I 0 W/m 28,2 km/h (4 Bft)
03.08.2014 21:12 15,9 C 13,9 C 92 % 1012,2 hPa 1,0 l/m 0 min 2 min 0,0 UV-I 0 W/m 24,7 km/h (4 Bft)
03.08.2014 21:14 15,7 C 13,9 C 92 % 1012,1 hPa 0,6 l/m 0 min 2 min 0,0 UV-I 0 W/m 17,7 km/h (3 Bft)
03.08.2014 21:16 15,5 C 13,9 C 92 % 1012,1 hPa 0,4 l/m 0 min 2 min 0,0 UV-I 0 W/m 7,1 km/h (2 Bft)
03.08.2014 21:20 15,4 C 13,9 C 93 % 1012,1 hPa 0,4 l/m 0 min 2 min 0,0 UV-I 0 W/m 0,0 km/h (0 Bft)
03.08.2014 21:22 15,4 C 13,9 C 93 % 1012,1 hPa 0,2 l/m 0 min 2 min 0,0 UV-I 0 W/m 0,0 km/h (0 Bft)
03.08.2014 21:24 15,3 C 13,9 C 93 % 1012,0 hPa 0,2 l/m 0 min 2 min 0,0 UV-I 0 W/m 0,0 km/h (0 Bft)
03.08.2014 21:26 15,3 C 13,9 C 94 % 1011,9 hPa 0,0 l/m 0 min 2 min 0,0 UV-I 0 W/m 0,0 km/h (0 Bft)
03.08.2014 21:28 15,4 C 13,9 C 94 % 1011,8 hPa 0,0 l/m 0 min 2 min 0,0 UV-I 0 W/m 0,0 km/h (0 Bft)
03.08.2014 21:30 15,5 C 13,9 C 94 % 1011,9 hPa 0,0 l/m 0 min 2 min 0,0 UV-I 0 W/m 0,0 km/h (0 Bft)
03.08.2014 21:32 15,5 C 13,9 C 95 % 1011,9 hPa 0,0 l/m 0 min 2 min 0,0 UV-I 0 W/m 0,0 km/h (0 Bft)
03.08.2014 21:34 15,5 C 13,9 C 95 % 1011,9 hPa 0,2 l/m 0 min 2 min 0,0 UV-I 0 W/m 0,0 km/h (0 Bft)
03.08.2014 21:36 15,5 C 13,9 C 95 % 1012,0 hPa 0,0 l/m 0 min 2 min 0,0 UV-I 0 W/m 0,0 km/h (0 Bft)
03.08.2014 21:38 15,6 C 13,9 C 95 % 1012,0 hPa 0,0 l/m 0 min 2 min 0,0 UV-I 0 W/m 0,0 km/h (0 Bft)
03.08.2014 21:40 15,7 C 13,9 C 95 % 1012,0 hPa 0,0 l/m 0 min 2 min 0,0 UV-I 0 W/m 0,0 km/h (0 Bft)
03.08.2014 21:42 15,8 C 13,9 C 96 % 1011,9 hPa 0,0 l/m 0 min 2 min 0,0 UV-I 0 W/m 3,5 km/h (1 Bft)
03.08.2014 21:44 15,9 C 14,4 C 96 % 1012,1 hPa 0,0 l/m 0 min 2 min 0,0 UV-I 0 W/m 0,0 km/h (0 Bft)
03.08.2014 21:46 15,9 C 14,4 C 96 % 1012,1 hPa 0,0 l/m 0 min 2 min 0,0 UV-I 0 W/m 0,0 km/h (0 Bft)
03.08.2014 21:48 15,9 C 14,4 C 96 % 1012,3 hPa 0,0 l/m 0 min 2 min 0,0 UV-I 0 W/m 0,0 km/h (0 Bft)
03.08.2014 21:50 15,9 C 14,4 C 96 % 1012,3 hPa 0,0 l/m 0 min 2 min 0,0 UV-I 0 W/m 0,0 km/h (0 Bft)
03.08.2014 21:52 15,9 C 14,4 C 96 % 1012,3 hPa 0,0 l/m 0 min 2 min 0,0 UV-I 0 W/m 3,5 km/h (1 Bft)
03.08.2014 21:54 16,0 C 14,4 C 96 % 1012,3 hPa 0,2 l/m 0 min 2 min 0,0 UV-I 0 W/m 0,0 km/h (0 Bft)
03.08.2014 21:56 16,0 C 14,4 C 96 % 1012,4 hPa 0,0 l/m 0 min 2 min 0,0 UV-I 0 W/m 14,2 km/h (3 Bft)
03.08.2014 21:58 16,0 C 14,4 C 96 % 1012,4 hPa 0,0 l/m 0 min 2 min 0,0 UV-I 0 W/m 17,7 km/h (3 Bft)
03.08.2014 22:00 15,9 C 14,4 C 96 % 1012,4 hPa 0,0 l/m 0 min 2 min 0,0 UV-I 0 W/m 10,7 km/h (2 Bft)
03.08.2014 22:02 15,9 C 14,4 C 97 % 1012,4 hPa 0,2 l/m 0 min 2 min 0,0 UV-I 0 W/m 17,7 km/h (3 Bft)
03.08.2014 22:04 15,9 C 14,4 C 97 % 1012,4 hPa 0,0 l/m 0 min 2 min 0,0 UV-I 0 W/m 17,7 km/h (3 Bft)
03.08.2014 22:06 15,9 C 14,4 C 97 % 1012,4 hPa 0,2 l/m 0 min 2 min 0,0 UV-I 0 W/m 21,3 km/h (4 Bft)
03.08.2014 22:08 15,9 C 14,4 C 97 % 1012,4 hPa 0,0 l/m 0 min 2 min 0,0 UV-I 0 W/m 24,7 km/h (4 Bft)
03.08.2014 22:10 15,9 C 14,4 C 97 % 1012,3 hPa 0,0 l/m 0 min 2 min 0,0 UV-I 0 W/m 24,7 km/h (4 Bft)
03.08.2014 22:12 15,8 C 14,4 C 97 % 1012,3 hPa 0,2 l/m 0 min 2 min 0,0 UV-I 0 W/m 21,3 km/h (4 Bft)
03.08.2014 22:14 15,9 C 14,4 C 97 % 1012,2 hPa 0,2 l/m 0 min 2 min 0,0 UV-I 0 W/m 17,7 km/h (3 Bft)
03.08.2014 22:16 15,9 C 14,4 C 97 % 1012,2 hPa 0,0 l/m 0 min 2 min 0,0 UV-I 0 W/m 14,2 km/h (3 Bft)
03.08.2014 22:18 15,9 C 14,4 C 97 % 1012,2 hPa 0,0 l/m 0 min 2 min 0,0 UV-I 0 W/m 17,7 km/h (3 Bft)
03.08.2014 22:20 15,9 C 14,4 C 97 % 1012,1 hPa 0,0 l/m 0 min 2 min 0,0 UV-I 0 W/m 31,7 km/h (5 Bft)
03.08.2014 22:22 16,0 C 15,0 C 97 % 1012,1 hPa 0,0 l/m 0 min 0 min 0,0 UV-I 0 W/m 17,7 km/h (3 Bft)
03.08.2014 22:24 16,0 C 14,4 C 97 % 1012,0 hPa 0,0 l/m 0 min 0 min 0,0 UV-I 0 W/m 14,2 km/h (3 Bft)
03.08.2014 22:26 16,1 C 15,0 C 97 % 1012,0 hPa 0,0 l/m 0 min 0 min 0,0 UV-I 0 W/m 7,1 km/h (2 Bft)
03.08.2014 22:28 16,1 C 15,0 C 97 % 1012,0 hPa 0,0 l/m 0 min 0 min 0,0 UV-I 0 W/m 10,7 km/h (2 Bft)
03.08.2014 22:30 16,2 C 15,0 C 97 % 1011,9 hPa 0,0 l/m 0 min 0 min 0,0 UV-I 0 W/m 7,1 km/h (2 Bft)
03.08.2014 22:32 16,2 C 15,0 C 97 % 1011,9 hPa 0,0 l/m 0 min 0 min 0,0 UV-I 0 W/m 14,2 km/h (3 Bft)
03.08.2014 22:34 16,2 C 15,0 C 97 % 1011,9 hPa 0,0 l/m 0 min 0 min 0,0 UV-I 0 W/m 0,0 km/h (0 Bft)
03.08.2014 22:36 16,1 C 15,0 C 97 % 1011,9 hPa 0,0 l/m 0 min 0 min 0,0 UV-I 0 W/m 0,0 km/h (0 Bft)
03.08.2014 22:38 16,2 C 15,0 C 97 % 1011,9 hPa 0,0 l/m 0 min 0 min 0,0 UV-I 0 W/m 0,0 km/h (0 Bft)
03.08.2014 22:40 16,1 C 15,0 C 97 % 1011,9 hPa 0,0 l/m 0 min 0 min 0,0 UV-I 0 W/m 7,1 km/h (2 Bft)
03.08.2014 22:42 16,2 C 14,4 C 97 % 1011,9 hPa 0,0 l/m 0 min 0 min 0,0 UV-I 0 W/m 0,0 km/h (0 Bft)
03.08.2014 22:44 16,1 C 14,4 C 97 % 1011,9 hPa 0,0 l/m 0 min 0 min 0,0 UV-I 0 W/m 3,5 km/h (1 Bft)
03.08.2014 22:46 16,1 C 14,4 C 97 % 1011,9 hPa 0,0 l/m 0 min 0 min 0,0 UV-I 0 W/m 0,0 km/h (0 Bft)
03.08.2014 22:48 16,1 C 14,4 C 97 % 1011,9 hPa 0,0 l/m 0 min 0 min 0,0 UV-I 0 W/m 0,0 km/h (0 Bft)
03.08.2014 22:50 16,1 C 14,4 C 97 % 1012,1 hPa 0,0 l/m 0 min 0 min 0,0 UV-I 0 W/m 0,0 km/h (0 Bft)
03.08.2014 22:52 16,1 C 14,4 C 97 % 1012,1 hPa 0,0 l/m 0 min 0 min 0,0 UV-I 0 W/m 0,0 km/h (0 Bft)
03.08.2014 22:54 16,1 C 14,4 C 97 % 1012,1 hPa 0,0 l/m 0 min 0 min 0,0 UV-I 0 W/m 0,0 km/h (0 Bft)
03.08.2014 22:56 16,1 C 14,4 C 97 % 1012,1 hPa 0,0 l/m 0 min 0 min 0,0 UV-I 0 W/m 0,0 km/h (0 Bft)
03.08.2014 22:58 16,0 C 14,4 C 97 % 1012,1 hPa 0,0 l/m 0 min 0 min 0,0 UV-I 0 W/m 0,0 km/h (0 Bft)
03.08.2014 23:00 15,9 C 14,4 C 97 % 1012,1 hPa 0,0 l/m 0 min 0 min 0,0 UV-I 0 W/m 0,0 km/h (0 Bft)
03.08.2014 23:02 15,9 C 14,4 C 97 % 1012,2 hPa 0,0 l/m 0 min 0 min 0,0 UV-I 0 W/m 0,0 km/h (0 Bft)
03.08.2014 23:04 15,9 C 14,4 C 97 % 1012,1 hPa 0,0 l/m 0 min 0 min 0,0 UV-I 0 W/m 3,5 km/h (1 Bft)
03.08.2014 23:06 15,9 C 14,4 C 97 % 1012,1 hPa 0,0 l/m 0 min 0 min 0,0 UV-I 0 W/m 0,0 km/h (0 Bft)
03.08.2014 23:08 15,9 C 14,4 C 97 % 1012,1 hPa 0,0 l/m 0 min 0 min 0,0 UV-I 0 W/m 0,0 km/h (0 Bft)
03.08.2014 23:10 15,9 C 14,4 C 97 % 1012,2 hPa 0,0 l/m 0 min 0 min 0,0 UV-I 0 W/m 17,7 km/h (3 Bft)
03.08.2014 23:12 15,9 C 14,4 C 98 % 1012,3 hPa 0,0 l/m 0 min 0 min 0,0 UV-I 0 W/m 17,7 km/h (3 Bft)
03.08.2014 23:14 16,0 C 14,4 C 98 % 1012,3 hPa 0,0 l/m 0 min 0 min 0,0 UV-I 0 W/m 14,2 km/h (3 Bft)
03.08.2014 23:16 16,0 C 14,4 C 98 % 1012,3 hPa 0,0 l/m 0 min 0 min 0,0 UV-I 0 W/m 21,3 km/h (4 Bft)
03.08.2014 23:18 16,0 C 14,4 C 98 % 1012,3 hPa 0,0 l/m 0 min 0 min 0,0 UV-I 0 W/m 24,7 km/h (4 Bft)
03.08.2014 23:20 16,0 C 14,4 C 98 % 1012,3 hPa 0,0 l/m 0 min 0 min 0,0 UV-I 0 W/m 21,3 km/h (4 Bft)
03.08.2014 23:22 15,9 C 14,4 C 98 % 1012,3 hPa 0,0 l/m 0 min 0 min 0,0 UV-I 0 W/m 14,2 km/h (3 Bft)
03.08.2014 23:24 15,9 C 14,4 C 98 % 1012,3 hPa 0,0 l/m 0 min 0 min 0,0 UV-I 0 W/m 24,7 km/h (4 Bft)
03.08.2014 23:26 15,9 C 14,4 C 98 % 1012,4 hPa 0,0 l/m 0 min 0 min 0,0 UV-I 0 W/m 17,7 km/h (3 Bft)
03.08.2014 23:28 15,9 C 14,4 C 98 % 1012,5 hPa 0,0 l/m 0 min 0 min 0,0 UV-I 0 W/m 21,3 km/h (4 Bft)
03.08.2014 23:30 15,9 C 14,4 C 98 % 1012,6 hPa 0,0 l/m 0 min 0 min 0,0 UV-I 0 W/m 24,7 km/h (4 Bft)
03.08.2014 23:32 15,9 C 15,0 C 98 % 1012,7 hPa 0,0 l/m 0 min 0 min 0,0 UV-I 0 W/m 28,2 km/h (4 Bft)
03.08.2014 23:34 15,9 C 15,0 C 98 % 1012,8 hPa 0,0 l/m 0 min 0 min 0,0 UV-I 0 W/m 24,7 km/h (4 Bft)
03.08.2014 23:36 15,9 C 15,0 C 98 % 1012,7 hPa 0,0 l/m 0 min 0 min 0,0 UV-I 0 W/m 28,2 km/h (4 Bft)
03.08.2014 23:38 15,9 C 15,0 C 98 % 1012,8 hPa 0,0 l/m 0 min 0 min 0,0 UV-I 0 W/m 21,3 km/h (4 Bft)
03.08.2014 23:40 15,9 C 14,4 C 98 % 1012,8 hPa 0,0 l/m 0 min 0 min 0,0 UV-I 0 W/m 14,2 km/h (3 Bft)
03.08.2014 23:42 15,9 C 14,4 C 98 % 1012,8 hPa 0,0 l/m 0 min 0 min 0,0 UV-I 0 W/m 21,3 km/h (4 Bft)
03.08.2014 23:44 15,9 C 14,4 C 98 % 1012,8 hPa 0,0 l/m 0 min 0 min 0,0 UV-I 0 W/m 17,7 km/h (3 Bft)
03.08.2014 23:46 15,9 C 14,4 C 98 % 1012,9 hPa 0,0 l/m 0 min 0 min 0,0 UV-I 0 W/m 21,3 km/h (4 Bft)
03.08.2014 23:48 15,9 C 15,0 C 98 % 1012,9 hPa 0,0 l/m 0 min 0 min 0,0 UV-I 0 W/m 14,2 km/h (3 Bft)
03.08.2014 23:50 15,9 C 14,4 C 98 % 1012,7 hPa 0,0 l/m 0 min 0 min 0,0 UV-I 0 W/m 17,7 km/h (3 Bft)
03.08.2014 23:52 15,9 C 14,4 C 98 % 1012,7 hPa 0,0 l/m 0 min 0 min 0,0 UV-I 0 W/m 17,7 km/h (3 Bft)
03.08.2014 23:54 16,0 C 15,0 C 98 % 1012,9 hPa 0,0 l/m 0 min 0 min 0,0 UV-I 0 W/m 17,7 km/h (3 Bft)
03.08.2014 23:56 16,0 C 15,0 C 98 % 1012,9 hPa 0,0 l/m 0 min 0 min 0,0 UV-I 0 W/m 21,3 km/h (4 Bft)
03.08.2014 23:58 16,0 C 15,0 C 98 % 1012,8 hPa 0,0 l/m 0 min 2 min 0,0 UV-I 0 W/m 14,2 km/h (3 Bft)
_ Min-Zeit 21:24 21:02 18:12 00:36 - - - - - 00:00
Minimum _ 15,3 C 13,9 C 64 % 1006,4 hPa - - - - - 0,0 km/h (0 Bft)
_ Max-Zeit 18:12 10:30 03:52 23:46 21:04 07:00 20:46 11:34 10:50 20:56
Maximum _ 25,3 C 26,1 C 99 % 1012,9 hPa 2,0 l/m 2 min 2 min 3,8 UV-I 739 W/m 77,7 km/h
W-NW (9 Bft)
Durchschnitt _ 20,3 C 19,4 C 84 % 1009,9 hPa #15,2 l/m #11:33 h #1:34 h 2,3 UV-I 367 W/m 10,5 km/h (2 Bft)
© 2014 W. Hausmann